AAL136 KLAX-EGLL

Flight info

Callsign AAL136
Flight time 9h 39m
Altitude 33000
Route OSHNN1 BEALE Q842 WINEN DCT MLF J107 DPR DCT KP09A DCT HML DCT 55N090W/N0483F350 60N080W DCT TEFFO DCT BERUS/M084F350 DCT EMBOK DCT 63N050W 6230N04000W 61N030W 59N020W DCT AGORI/N0485F350 DCT OSBOX DCT MIMKU DCT KELLY L10 WAL UY53 NUGRA NUGRA2H
Aircraft B77W/H-VGDW/C

Departure

Time 2026-04-26 03:28
Airport Los Angeles International Airport (KLAX)

Arrival

Time 2026-04-26 13:07
Airport London Heathrow Airport (EGLL)
Time Latitude Longitude Altitude Speed Heading
2026-04-26 02:40 33.94089 -118.40931 100 ft 0 kts 262°
2026-04-26 03:12 33.94092 -118.40903 99 ft 4 kts 262°
2026-04-26 03:12 33.94096 -118.40872 98 ft 4 kts 259°
2026-04-26 03:13 33.94102 -118.40847 99 ft 2 kts 232°
2026-04-26 03:13 33.94111 -118.40839 98 ft 2 kts 179°
2026-04-26 03:13 33.94122 -118.40840 99 ft 3 kts 173°
2026-04-26 03:13 33.94097 -118.40836 100 ft 3 kts 173°
2026-04-26 03:14 33.94080 -118.40834 101 ft 1 kts 173°
2026-04-26 03:14 33.94072 -118.40833 102 ft 1 kts 173°
2026-04-26 03:14 33.94064 -118.40832 100 ft 0 kts 173°
2026-04-26 03:19 33.94063 -118.40831 100 ft 2 kts 173°
2026-04-26 03:19 33.94026 -118.40826 102 ft 7 kts 172°
2026-04-26 03:20 33.93974 -118.40818 102 ft 8 kts 173°
2026-04-26 03:20 33.93916 -118.40801 102 ft 9 kts 152°
2026-04-26 03:20 33.93861 -118.40752 105 ft 10 kts 149°
2026-04-26 03:20 33.93817 -118.40690 107 ft 12 kts 105°
2026-04-26 03:21 33.93821 -118.40570 107 ft 14 kts 83°
2026-04-26 03:21 33.93832 -118.40468 108 ft 12 kts 83°
2026-04-26 03:21 33.93841 -118.40367 108 ft 12 kts 83°
2026-04-26 03:21 33.93852 -118.40266 109 ft 12 kts 83°
2026-04-26 03:22 33.93862 -118.40167 109 ft 12 kts 83°
2026-04-26 03:22 33.93873 -118.40066 109 ft 13 kts 83°
2026-04-26 03:22 33.93884 -118.39957 109 ft 13 kts 83°
2026-04-26 03:22 33.93894 -118.39848 108 ft 13 kts 83°
2026-04-26 03:23 33.93906 -118.39740 108 ft 13 kts 83°
2026-04-26 03:23 33.93916 -118.39634 108 ft 13 kts 83°
2026-04-26 03:23 33.93928 -118.39528 107 ft 13 kts 83°
2026-04-26 03:23 33.93938 -118.39422 107 ft 13 kts 83°
2026-04-26 03:24 33.93949 -118.39316 106 ft 13 kts 83°
2026-04-26 03:24 33.93960 -118.39211 107 ft 13 kts 83°
2026-04-26 03:24 33.93971 -118.39106 106 ft 13 kts 83°
2026-04-26 03:24 33.93981 -118.39002 106 ft 13 kts 83°
2026-04-26 03:25 33.93992 -118.38895 106 ft 13 kts 83°
2026-04-26 03:25 33.94004 -118.38781 106 ft 14 kts 83°
2026-04-26 03:25 33.94016 -118.38665 107 ft 14 kts 83°
2026-04-26 03:25 33.94027 -118.38557 108 ft 13 kts 83°
2026-04-26 03:26 33.94037 -118.38449 108 ft 13 kts 83°
2026-04-26 03:26 33.94049 -118.38342 108 ft 13 kts 83°
2026-04-26 03:26 33.94060 -118.38230 108 ft 14 kts 83°
2026-04-26 03:26 33.94072 -118.38116 107 ft 13 kts 83°
2026-04-26 03:27 33.94067 -118.38029 109 ft 7 kts 125°
2026-04-26 03:27 33.94017 -118.38008 112 ft 9 kts 187°
2026-04-26 03:27 33.93977 -118.38101 115 ft 19 kts 262°
2026-04-26 03:27 33.93940 -118.38453 112 ft 76 kts 263°
2026-04-26 03:28 33.93845 -118.39380 112 ft 145 kts 263°
2026-04-26 03:28 33.93699 -118.40806 157 ft 191 kts 263°
2026-04-26 03:28 33.93543 -118.42372 828 ft 188 kts 261°
2026-04-26 03:28 33.93383 -118.43950 1470 ft 194 kts 263°
2026-04-26 03:29 33.93159 -118.45607 1710 ft 211 kts 252°
2026-04-26 03:29 33.92328 -118.47179 1939 ft 229 kts 231°
2026-04-26 03:29 33.91285 -118.48720 2347 ft 242 kts 233°
2026-04-26 03:29 33.90222 -118.50296 2976 ft 249 kts 231°
2026-04-26 03:30 33.89099 -118.51895 3703 ft 250 kts 232°
2026-04-26 03:30 33.87969 -118.53500 4454 ft 252 kts 232°
2026-04-26 03:30 33.86784 -118.55059 5129 ft 255 kts 220°
2026-04-26 03:30 33.85141 -118.55928 5750 ft 266 kts 190°
2026-04-26 03:31 33.83281 -118.55804 6411 ft 271 kts 171°
2026-04-26 03:31 33.81413 -118.55287 6960 ft 276 kts 171°
2026-04-26 03:31 33.79540 -118.54761 7685 ft 277 kts 171°
2026-04-26 03:31 33.77680 -118.54245 8354 ft 279 kts 171°
2026-04-26 03:32 33.75773 -118.53723 8982 ft 283 kts 172°
2026-04-26 03:32 33.73845 -118.53200 9674 ft 285 kts 172°
2026-04-26 03:32 33.71911 -118.52671 10265 ft 287 kts 169°
2026-04-26 03:32 33.70052 -118.51602 10457 ft 314 kts 142°
2026-04-26 03:33 33.68742 -118.49385 10627 ft 341 kts 114°
2026-04-26 03:33 33.67958 -118.46617 10775 ft 360 kts 110°
2026-04-26 03:33 33.67172 -118.43666 10959 ft 382 kts 110°
2026-04-26 03:33 33.66308 -118.40588 11386 ft 394 kts 111°
2026-04-26 03:34 33.65704 -118.38512 11758 ft 400 kts 112°
2026-04-26 03:34 33.64774 -118.35337 12456 ft 405 kts 110°
2026-04-26 03:34 33.64252 -118.31990 13135 ft 413 kts 92°
2026-04-26 03:34 33.64362 -118.28524 13684 ft 420 kts 89°
2026-04-26 03:35 33.64473 -118.23835 14486 ft 427 kts 91°
2026-04-26 03:35 33.64796 -118.20302 15035 ft 432 kts 73°
2026-04-26 03:35 33.65591 -118.18041 15419 ft 436 kts 59°
2026-04-26 03:35 33.67433 -118.15199 16047 ft 437 kts 40°
2026-04-26 03:36 33.69810 -118.12955 16654 ft 436 kts 33°
2026-04-26 03:36 33.72146 -118.10925 17156 ft 444 kts 33°
2026-04-26 03:36 33.74697 -118.08715 17836 ft 448 kts 33°
2026-04-26 03:36 33.77197 -118.06528 18480 ft 452 kts 33°
2026-04-26 03:37 33.79745 -118.04270 19016 ft 458 kts 33°
2026-04-26 03:37 33.82318 -118.01968 19522 ft 464 kts 34°
2026-04-26 03:37 33.84924 -117.99622 20059 ft 470 kts 34°
2026-04-26 03:37 33.87564 -117.97243 20573 ft 476 kts 34°
2026-04-26 03:38 33.90222 -117.94849 21098 ft 481 kts 34°
2026-04-26 03:38 33.92912 -117.92411 21620 ft 486 kts 34°
2026-04-26 03:38 33.95620 -117.89934 22123 ft 491 kts 34°
2026-04-26 03:38 33.98352 -117.87429 22618 ft 497 kts 34°
2026-04-26 03:39 34.01121 -117.84894 23118 ft 502 kts 34°
2026-04-26 03:39 34.03911 -117.82338 23610 ft 506 kts 34°
2026-04-26 03:39 34.06730 -117.79755 24022 ft 510 kts 34°
2026-04-26 03:39 34.09524 -117.77085 24452 ft 513 kts 40°
2026-04-26 03:40 34.11973 -117.73912 24815 ft 520 kts 50°
2026-04-26 03:40 34.14207 -117.70453 25206 ft 524 kts 52°
2026-04-26 03:40 34.16408 -117.66933 25609 ft 527 kts 52°
2026-04-26 03:40 34.18647 -117.63413 26059 ft 530 kts 51°
2026-04-26 03:41 34.20944 -117.59906 26453 ft 534 kts 51°
2026-04-26 03:41 34.23287 -117.56407 26844 ft 537 kts 50°
2026-04-26 03:41 34.25657 -117.52902 27193 ft 540 kts 50°
2026-04-26 03:41 34.28013 -117.49412 27495 ft 543 kts 50°
2026-04-26 03:42 34.30406 -117.45845 27830 ft 547 kts 51°
2026-04-26 03:42 34.32803 -117.42262 28180 ft 549 kts 51°
2026-04-26 03:42 34.35213 -117.38656 28537 ft 552 kts 51°
2026-04-26 03:42 34.37624 -117.35045 28886 ft 554 kts 51°
2026-04-26 03:43 34.40057 -117.31401 29211 ft 556 kts 51°
2026-04-26 03:43 34.42490 -117.27750 29549 ft 557 kts 51°
2026-04-26 03:43 34.44921 -117.24100 29984 ft 555 kts 51°
2026-04-26 03:43 34.47337 -117.20468 30423 ft 552 kts 51°
2026-04-26 03:44 34.49748 -117.16840 30812 ft 551 kts 51°
2026-04-26 03:44 34.52152 -117.13219 31151 ft 550 kts 51°
2026-04-26 03:44 34.54556 -117.09597 31473 ft 550 kts 51°
2026-04-26 03:44 34.56944 -117.06062 31789 ft 549 kts 50°
2026-04-26 03:45 34.59394 -117.02498 32108 ft 549 kts 50°
2026-04-26 03:45 34.61839 -116.98965 32381 ft 549 kts 50°
2026-04-26 03:45 34.64302 -116.95404 32690 ft 549 kts 50°
2026-04-26 03:45 34.66759 -116.91837 32797 ft 552 kts 50°
2026-04-26 03:46 34.71680 -116.84649 32840 ft 550 kts 50°
2026-04-26 03:47 34.78954 -116.73976 32856 ft 544 kts 50°
2026-04-26 03:47 34.83775 -116.66891 32857 ft 544 kts 50°
2026-04-26 03:48 34.88687 -116.59852 32836 ft 545 kts 48°
2026-04-26 03:48 34.93810 -116.53092 32813 ft 547 kts 46°
2026-04-26 03:49 34.99009 -116.46283 32788 ft 549 kts 47°
2026-04-26 03:49 35.04190 -116.39383 32778 ft 551 kts 47°
2026-04-26 03:50 35.09348 -116.32442 32772 ft 553 kts 48°
2026-04-26 03:50 35.14517 -116.25465 32764 ft 554 kts 48°
2026-04-26 03:51 35.19685 -116.18487 32756 ft 554 kts 48°
2026-04-26 03:51 35.24855 -116.11496 32758 ft 554 kts 48°
2026-04-26 03:52 35.30014 -116.04504 32776 ft 553 kts 48°
2026-04-26 03:52 35.35164 -115.97510 32781 ft 552 kts 48°
2026-04-26 03:53 35.40303 -115.90517 32780 ft 552 kts 48°
2026-04-26 03:53 35.45400 -115.83566 32794 ft 551 kts 48°
2026-04-26 03:54 35.50520 -115.76569 32793 ft 549 kts 49°
2026-04-26 03:54 35.55611 -115.69599 32801 ft 547 kts 49°
2026-04-26 03:55 35.60691 -115.62628 32791 ft 547 kts 49°
2026-04-26 03:55 35.65754 -115.55666 32792 ft 546 kts 49°
2026-04-26 03:56 35.70781 -115.48740 32814 ft 546 kts 49°
2026-04-26 03:56 35.75841 -115.41748 32768 ft 547 kts 49°
2026-04-26 03:57 35.80900 -115.34738 32782 ft 547 kts 49°
2026-04-26 03:57 35.85965 -115.27703 32763 ft 548 kts 49°
2026-04-26 03:58 35.91026 -115.20663 32758 ft 548 kts 49°
2026-04-26 03:58 35.96080 -115.13618 32759 ft 548 kts 49°
2026-04-26 03:59 36.01126 -115.06568 32757 ft 547 kts 49°
2026-04-26 03:59 36.06163 -114.99516 32727 ft 547 kts 49°
2026-04-26 04:00 36.11155 -114.92511 32676 ft 546 kts 49°
2026-04-26 04:00 36.16174 -114.85456 32672 ft 546 kts 49°
2026-04-26 04:00 36.18835 -114.82110 32653 ft 546 kts 38°
2026-04-26 04:01 36.22013 -114.79592 32674 ft 540 kts 25°
2026-04-26 04:01 36.28741 -114.75407 32659 ft 541 kts 24°
2026-04-26 04:02 36.35469 -114.71174 32641 ft 543 kts 25°
2026-04-26 04:02 36.42159 -114.66764 32636 ft 544 kts 26°
2026-04-26 04:03 36.48808 -114.62312 32629 ft 542 kts 26°
2026-04-26 04:03 36.55442 -114.57876 32618 ft 541 kts 26°
2026-04-26 04:04 36.62070 -114.53448 32623 ft 539 kts 26°
2026-04-26 04:04 36.68673 -114.49029 32623 ft 538 kts 26°
2026-04-26 04:05 36.75156 -114.44360 32619 ft 538 kts 30°
2026-04-26 04:05 36.81440 -114.39400 32635 ft 538 kts 31°
2026-04-26 04:06 36.87759 -114.34365 32632 ft 538 kts 31°
2026-04-26 04:06 36.94108 -114.29345 32643 ft 538 kts 31°
2026-04-26 04:07 37.00405 -114.24383 32655 ft 538 kts 30°
2026-04-26 04:07 37.06735 -114.19391 32660 ft 538 kts 31°
2026-04-26 04:08 37.13075 -114.14375 32660 ft 538 kts 31°
2026-04-26 04:08 37.19403 -114.09358 32682 ft 537 kts 31°
2026-04-26 04:09 37.25716 -114.04342 32686 ft 537 kts 30°
2026-04-26 04:09 37.32039 -113.99309 32685 ft 537 kts 30°
2026-04-26 04:10 37.38301 -113.94313 32703 ft 536 kts 30°
2026-04-26 04:10 37.44601 -113.89277 32694 ft 536 kts 30°
2026-04-26 04:11 37.50893 -113.84238 32705 ft 535 kts 30°
2026-04-26 04:11 37.57167 -113.79203 32702 ft 534 kts 30°
2026-04-26 04:12 37.63419 -113.74175 32716 ft 533 kts 31°
2026-04-26 04:12 37.69661 -113.69145 32713 ft 532 kts 31°
2026-04-26 04:13 37.75896 -113.64110 32710 ft 531 kts 31°
2026-04-26 04:13 37.82126 -113.59069 32709 ft 531 kts 31°
2026-04-26 04:14 37.88353 -113.54020 32711 ft 531 kts 31°
2026-04-26 04:14 37.94471 -113.48774 32703 ft 532 kts 37°
2026-04-26 04:15 38.00032 -113.42558 32708 ft 533 kts 41°
2026-04-26 04:15 38.05503 -113.36208 32703 ft 533 kts 41°
2026-04-26 04:16 38.10973 -113.29930 32702 ft 533 kts 40°
2026-04-26 04:16 38.16489 -113.23646 32719 ft 533 kts 40°
2026-04-26 04:17 38.22013 -113.17344 32745 ft 532 kts 40°
2026-04-26 04:17 38.27518 -113.11042 32773 ft 532 kts 40°
2026-04-26 04:18 38.33020 -113.04727 32805 ft 532 kts 41°
2026-04-26 04:18 38.38515 -112.98404 32807 ft 532 kts 41°
2026-04-26 04:19 38.43079 -112.93118 32809 ft 532 kts 41°
2026-04-26 04:19 38.49444 -112.85719 32787 ft 532 kts 41°
2026-04-26 04:20 38.54001 -112.80414 32758 ft 532 kts 41°
2026-04-26 04:20 38.59472 -112.74034 32725 ft 531 kts 41°
2026-04-26 04:21 38.64935 -112.67651 32706 ft 531 kts 41°
2026-04-26 04:21 38.70388 -112.61265 32701 ft 530 kts 41°
2026-04-26 04:22 38.75827 -112.54881 32738 ft 529 kts 41°
2026-04-26 04:22 38.81239 -112.48516 32773 ft 528 kts 41°
2026-04-26 04:23 38.86648 -112.42141 32800 ft 527 kts 41°
2026-04-26 04:23 38.92045 -112.35766 32805 ft 527 kts 41°
2026-04-26 04:24 38.97436 -112.29384 32809 ft 527 kts 41°
2026-04-26 04:24 39.02792 -112.23029 32794 ft 527 kts 41°
2026-04-26 04:25 39.08176 -112.16626 32764 ft 527 kts 41°
2026-04-26 04:25 39.13560 -112.10213 32737 ft 527 kts 41°
2026-04-26 04:26 39.18938 -112.03791 32715 ft 526 kts 41°
2026-04-26 04:26 39.24305 -111.97365 32704 ft 526 kts 41°
2026-04-26 04:27 39.29657 -111.90942 32709 ft 525 kts 41°
2026-04-26 04:27 39.34971 -111.84552 32716 ft 525 kts 41°
2026-04-26 04:28 39.40309 -111.78117 32710 ft 525 kts 41°
2026-04-26 04:28 39.45645 -111.71671 32725 ft 524 kts 41°
2026-04-26 04:29 39.50975 -111.65219 32722 ft 524 kts 41°
2026-04-26 04:29 39.56304 -111.58754 32734 ft 524 kts 41°
2026-04-26 04:30 39.61631 -111.52276 32734 ft 525 kts 41°
2026-04-26 04:30 39.66957 -111.45786 32733 ft 525 kts 41°
2026-04-26 04:31 39.72277 -111.39289 32741 ft 525 kts 41°
2026-04-26 04:31 39.77559 -111.32823 32745 ft 525 kts 41°
2026-04-26 04:32 39.82879 -111.26297 32739 ft 525 kts 41°
2026-04-26 04:32 39.88197 -111.19758 32749 ft 525 kts 41°
2026-04-26 04:33 39.93520 -111.13199 32743 ft 526 kts 41°
2026-04-26 04:33 39.98833 -111.06637 32741 ft 527 kts 41°
2026-04-26 04:34 40.04127 -111.00083 32764 ft 528 kts 41°
2026-04-26 04:34 40.09450 -110.93479 32750 ft 528 kts 41°
2026-04-26 04:35 40.14770 -110.86863 32768 ft 528 kts 41°
2026-04-26 04:35 40.20096 -110.80227 32756 ft 528 kts 41°
2026-04-26 04:36 40.25409 -110.73589 32757 ft 528 kts 41°
2026-04-26 04:36 40.30721 -110.66938 32751 ft 528 kts 41°
2026-04-26 04:37 40.36025 -110.60283 32756 ft 528 kts 41°
2026-04-26 04:37 40.41326 -110.53615 32747 ft 527 kts 41°
2026-04-26 04:38 40.46620 -110.46940 32763 ft 527 kts 41°
2026-04-26 04:38 40.51905 -110.40262 32764 ft 527 kts 41°
2026-04-26 04:39 40.57153 -110.33617 32771 ft 527 kts 41°
2026-04-26 04:39 40.62434 -110.26913 32777 ft 527 kts 41°
2026-04-26 04:40 40.67721 -110.20187 32785 ft 527 kts 41°
2026-04-26 04:40 40.72995 -110.13461 32790 ft 528 kts 40°
2026-04-26 04:41 40.78269 -110.06718 32800 ft 528 kts 40°
2026-04-26 04:41 40.83546 -109.99957 32793 ft 529 kts 40°
2026-04-26 04:42 40.88796 -109.93215 32794 ft 529 kts 40°
2026-04-26 04:42 40.94083 -109.86410 32797 ft 530 kts 40°
2026-04-26 04:43 40.99360 -109.79601 32796 ft 530 kts 40°
2026-04-26 04:43 41.04658 -109.72749 32794 ft 531 kts 40°
2026-04-26 04:44 41.09943 -109.65897 32774 ft 531 kts 40°
2026-04-26 04:44 41.15226 -109.59032 32784 ft 532 kts 40°
2026-04-26 04:45 41.20472 -109.52197 32794 ft 532 kts 40°
2026-04-26 04:45 41.25768 -109.45282 32793 ft 533 kts 40°
2026-04-26 04:46 41.31053 -109.38365 32797 ft 533 kts 40°
2026-04-26 04:46 41.36315 -109.31461 32823 ft 533 kts 40°
2026-04-26 04:47 41.41595 -109.24515 32845 ft 533 kts 40°
2026-04-26 04:47 41.46877 -109.17551 32867 ft 534 kts 40°
2026-04-26 04:48 41.54773 -109.07109 32885 ft 535 kts 40°
2026-04-26 04:48 41.59968 -108.99960 32888 ft 538 kts 46°
2026-04-26 04:49 41.64577 -108.92018 32877 ft 541 kts 49°
2026-04-26 04:49 41.69093 -108.83941 32852 ft 542 kts 49°
2026-04-26 04:50 41.73627 -108.75883 32836 ft 542 kts 49°
2026-04-26 04:50 41.78152 -108.67902 32822 ft 542 kts 49°
2026-04-26 04:51 41.82714 -108.59861 32809 ft 542 kts 49°
2026-04-26 04:51 41.87281 -108.51785 32810 ft 542 kts 49°
2026-04-26 04:52 41.91828 -108.43716 32815 ft 542 kts 49°
2026-04-26 04:52 41.96373 -108.35626 32811 ft 542 kts 49°
2026-04-26 04:53 42.00909 -108.27532 32820 ft 542 kts 49°
2026-04-26 04:53 42.05444 -108.19418 32809 ft 542 kts 49°
2026-04-26 04:54 42.09936 -108.11357 32812 ft 542 kts 49°
2026-04-26 04:54 42.14461 -108.03219 32816 ft 541 kts 49°
2026-04-26 04:55 42.18972 -107.95081 32826 ft 541 kts 49°
2026-04-26 04:55 42.23474 -107.86940 32832 ft 541 kts 49°
2026-04-26 04:56 42.27971 -107.78784 32844 ft 541 kts 49°
2026-04-26 04:56 42.32461 -107.70620 32853 ft 542 kts 49°
2026-04-26 04:57 42.36925 -107.62481 32865 ft 541 kts 49°
2026-04-26 04:57 42.41406 -107.54288 32886 ft 542 kts 49°
2026-04-26 04:58 42.45885 -107.46075 32900 ft 542 kts 49°
2026-04-26 04:58 42.50361 -107.37848 32910 ft 542 kts 49°
2026-04-26 04:59 42.54838 -107.29595 32916 ft 543 kts 50°
2026-04-26 04:59 42.59309 -107.21331 32927 ft 543 kts 50°
2026-04-26 05:00 42.63751 -107.13096 32941 ft 543 kts 50°
2026-04-26 05:00 42.68216 -107.04797 32949 ft 544 kts 50°
2026-04-26 05:01 42.72681 -106.96473 32954 ft 544 kts 50°
2026-04-26 05:01 42.77114 -106.88187 32962 ft 544 kts 50°
2026-04-26 05:02 42.81567 -106.79840 32957 ft 544 kts 50°
2026-04-26 05:02 42.86015 -106.71480 32954 ft 545 kts 50°
2026-04-26 05:03 42.90455 -106.63110 32950 ft 545 kts 50°
2026-04-26 05:03 42.94890 -106.54726 32936 ft 545 kts 50°
2026-04-26 05:04 42.99323 -106.46323 32936 ft 544 kts 50°
2026-04-26 05:04 43.03736 -106.37932 32945 ft 544 kts 51°
2026-04-26 05:05 43.08144 -106.29531 32956 ft 543 kts 51°
2026-04-26 05:05 43.12400 -106.21064 32980 ft 544 kts 54°
2026-04-26 05:06 43.16450 -106.12288 33002 ft 544 kts 55°
2026-04-26 05:06 43.19791 -106.04972 33008 ft 544 kts 54°
2026-04-26 05:07 43.23837 -105.96208 33013 ft 543 kts 54°
2026-04-26 05:07 43.27902 -105.87464 33029 ft 543 kts 54°
2026-04-26 05:08 43.31966 -105.78717 33026 ft 543 kts 54°
2026-04-26 05:08 43.36011 -105.69975 33040 ft 542 kts 54°
2026-04-26 05:09 43.40029 -105.61257 33044 ft 542 kts 54°
2026-04-26 05:09 43.44060 -105.52484 33050 ft 542 kts 54°
2026-04-26 05:10 43.48077 -105.43713 33048 ft 542 kts 54°
2026-04-26 05:10 43.52090 -105.34926 33061 ft 542 kts 55°
2026-04-26 05:11 43.56097 -105.26127 33057 ft 541 kts 55°
2026-04-26 05:11 43.60095 -105.17321 33066 ft 541 kts 55°
2026-04-26 05:12 43.64068 -105.08544 33059 ft 541 kts 55°
2026-04-26 05:12 43.68051 -104.99719 33073 ft 541 kts 55°
2026-04-26 05:13 43.72028 -104.90880 33074 ft 541 kts 55°
2026-04-26 05:13 43.75999 -104.82025 33074 ft 541 kts 55°
2026-04-26 05:14 43.79964 -104.73159 33071 ft 541 kts 55°
2026-04-26 05:14 43.83920 -104.64285 33067 ft 542 kts 56°
2026-04-26 05:15 43.87881 -104.55371 33061 ft 542 kts 56°
2026-04-26 05:15 43.91807 -104.46511 33060 ft 543 kts 56°
2026-04-26 05:16 43.95762 -104.37558 33056 ft 543 kts 56°
2026-04-26 05:16 43.99709 -104.28594 33062 ft 544 kts 56°
2026-04-26 05:17 44.03630 -104.19662 33065 ft 544 kts 56°
2026-04-26 05:17 44.07564 -104.10672 33077 ft 544 kts 56°
2026-04-26 05:18 44.11497 -104.01655 33084 ft 545 kts 56°
2026-04-26 05:18 44.15432 -103.92608 32909 ft 549 kts 54°
2026-04-26 05:19 44.17420 -103.88030 33036 ft 555 kts 54°
2026-04-26 05:19 44.19429 -103.83401 33082 ft 562 kts 54°
2026-04-26 05:19 44.23501 -103.73984 33084 ft 568 kts 55°
2026-04-26 05:20 44.27568 -103.64526 33072 ft 567 kts 55°
2026-04-26 05:20 44.31592 -103.55143 33068 ft 565 kts 55°
2026-04-26 05:21 44.35623 -103.45720 33049 ft 564 kts 55°
2026-04-26 05:21 44.39633 -103.36318 33084 ft 562 kts 55°
2026-04-26 05:22 44.43632 -103.26912 33072 ft 563 kts 55°
2026-04-26 05:22 44.47625 -103.17487 33077 ft 563 kts 55°
2026-04-26 05:23 44.51623 -103.08020 33100 ft 564 kts 56°
2026-04-26 05:23 44.55610 -102.98546 33096 ft 565 kts 56°
2026-04-26 05:24 44.59573 -102.89097 33113 ft 565 kts 56°
2026-04-26 05:24 44.63551 -102.79579 33112 ft 565 kts 56°
2026-04-26 05:25 44.67525 -102.70039 33117 ft 565 kts 56°
2026-04-26 05:25 44.71486 -102.60500 33125 ft 564 kts 56°
2026-04-26 05:26 44.75432 -102.50966 33128 ft 563 kts 56°
2026-04-26 05:26 44.79364 -102.41431 33138 ft 563 kts 56°
2026-04-26 05:27 44.83258 -102.31959 33140 ft 562 kts 56°
2026-04-26 05:27 44.87170 -102.22407 33146 ft 562 kts 56°
2026-04-26 05:28 44.91067 -102.12863 33146 ft 561 kts 57°
2026-04-26 05:28 44.94963 -102.03288 33149 ft 561 kts 57°
2026-04-26 05:29 44.98841 -101.93723 33153 ft 561 kts 57°
2026-04-26 05:29 45.02693 -101.84192 33155 ft 561 kts 57°
2026-04-26 05:30 45.06805 -101.74848 33147 ft 556 kts 48°
2026-04-26 05:30 45.11876 -101.66687 33157 ft 548 kts 38°
2026-04-26 05:31 45.17649 -101.59738 33157 ft 543 kts 32°
2026-04-26 05:31 45.23529 -101.52998 33158 ft 544 kts 33°
2026-04-26 05:32 45.29395 -101.46193 33146 ft 545 kts 33°
2026-04-26 05:32 45.35197 -101.39367 33151 ft 545 kts 34°
2026-04-26 05:33 45.41050 -101.32434 33141 ft 544 kts 34°
2026-04-26 05:33 45.46824 -101.25583 33138 ft 542 kts 34°
2026-04-26 05:34 45.52622 -101.18690 33139 ft 541 kts 34°
2026-04-26 05:34 45.58390 -101.11818 33136 ft 539 kts 34°
2026-04-26 05:35 45.64136 -101.04951 33131 ft 538 kts 34°
2026-04-26 05:35 45.69870 -100.98080 33136 ft 537 kts 35°
2026-04-26 05:36 45.75550 -100.91254 33123 ft 535 kts 35°
2026-04-26 05:36 45.81253 -100.84382 33127 ft 534 kts 35°
2026-04-26 05:37 45.86933 -100.77518 33118 ft 534 kts 36°
2026-04-26 05:37 45.92606 -100.70644 33122 ft 533 kts 36°
2026-04-26 05:38 45.98272 -100.63759 33123 ft 533 kts 36°
2026-04-26 05:38 46.03898 -100.56904 33121 ft 532 kts 36°
2026-04-26 05:39 46.09543 -100.50008 33112 ft 532 kts 36°
2026-04-26 05:39 46.15187 -100.43091 33117 ft 532 kts 37°
2026-04-26 05:40 46.20817 -100.36174 33117 ft 531 kts 37°
2026-04-26 05:40 46.26440 -100.29246 33117 ft 530 kts 37°
2026-04-26 05:41 46.32046 -100.22320 33122 ft 530 kts 37°
2026-04-26 05:41 46.37615 -100.15418 33131 ft 530 kts 37°
2026-04-26 05:42 46.43210 -100.08466 33132 ft 529 kts 37°
2026-04-26 05:42 46.48799 -100.01503 33133 ft 529 kts 37°
2026-04-26 05:43 46.54447 -99.94677 33130 ft 527 kts 35°
2026-04-26 05:43 46.60226 -99.88122 33140 ft 526 kts 34°
2026-04-26 05:44 46.65962 -99.81624 33129 ft 525 kts 35°
2026-04-26 05:44 46.71697 -99.75034 33131 ft 525 kts 35°
2026-04-26 05:45 46.77420 -99.68397 33136 ft 525 kts 35°
2026-04-26 05:45 46.83137 -99.61741 33141 ft 525 kts 36°
2026-04-26 05:46 46.88857 -99.55068 33141 ft 525 kts 36°
2026-04-26 05:46 46.94545 -99.48419 33141 ft 526 kts 36°
2026-04-26 05:47 47.00254 -99.41725 33143 ft 526 kts 36°
2026-04-26 05:47 47.05963 -99.35013 33148 ft 525 kts 36°
2026-04-26 05:48 47.11637 -99.28324 33145 ft 525 kts 36°
2026-04-26 05:48 47.17331 -99.21590 33146 ft 525 kts 36°
2026-04-26 05:49 47.25861 -99.11468 33158 ft 525 kts 36°
2026-04-26 05:50 47.31537 -99.04709 33154 ft 524 kts 36°
2026-04-26 05:50 47.37208 -98.97937 33153 ft 524 kts 36°
2026-04-26 05:51 47.42836 -98.91196 33161 ft 524 kts 37°
2026-04-26 05:51 47.48500 -98.84394 33160 ft 524 kts 37°
2026-04-26 05:52 47.54161 -98.77575 33156 ft 524 kts 37°
2026-04-26 05:52 47.59816 -98.70744 33150 ft 525 kts 37°
2026-04-26 05:53 47.65467 -98.63898 33150 ft 525 kts 37°
2026-04-26 05:53 47.71124 -98.57026 33145 ft 525 kts 37°
2026-04-26 05:54 47.76745 -98.50176 33149 ft 526 kts 37°
2026-04-26 05:54 47.82400 -98.43266 33143 ft 526 kts 37°
2026-04-26 05:55 47.88061 -98.36327 33146 ft 526 kts 37°
2026-04-26 05:55 47.93709 -98.29386 33141 ft 527 kts 37°
2026-04-26 05:56 47.99361 -98.22417 33143 ft 527 kts 37°
2026-04-26 05:56 48.04983 -98.15466 33142 ft 528 kts 37°
2026-04-26 05:57 48.10643 -98.08448 33140 ft 528 kts 37°
2026-04-26 05:57 48.15342 -98.02605 33139 ft 528 kts 37°
2026-04-26 05:58 48.21001 -97.95549 33133 ft 529 kts 38°
2026-04-26 05:58 48.26654 -97.88481 33133 ft 529 kts 38°
2026-04-26 05:59 48.32317 -97.81378 33123 ft 529 kts 38°
2026-04-26 05:59 48.37964 -97.74274 33120 ft 530 kts 38°
2026-04-26 06:00 48.43617 -97.67140 33119 ft 530 kts 38°
2026-04-26 06:00 48.49231 -97.60036 33120 ft 530 kts 38°
2026-04-26 06:01 48.54892 -97.52849 33117 ft 531 kts 38°
2026-04-26 06:01 48.60547 -97.45650 33124 ft 531 kts 38°
2026-04-26 06:02 48.66156 -97.38486 33119 ft 532 kts 38°
2026-04-26 06:02 48.71806 -97.31248 33112 ft 532 kts 38°
2026-04-26 06:03 48.77460 -97.23983 33105 ft 532 kts 38°
2026-04-26 06:03 48.83105 -97.16707 33098 ft 533 kts 39°
2026-04-26 06:04 48.88883 -97.09678 33099 ft 531 kts 32°
2026-04-26 06:04 48.95040 -97.03602 33111 ft 530 kts 30°
2026-04-26 06:05 49.01278 -96.97583 33114 ft 530 kts 30°
2026-04-26 06:05 49.07496 -96.91504 33124 ft 531 kts 31°
2026-04-26 06:06 49.13688 -96.85368 33132 ft 531 kts 31°
2026-04-26 06:06 49.19880 -96.79195 33128 ft 531 kts 31°
2026-04-26 06:07 49.26073 -96.73005 33130 ft 531 kts 31°
2026-04-26 06:07 49.32268 -96.66799 33131 ft 531 kts 31°
2026-04-26 06:08 49.38412 -96.60626 33127 ft 532 kts 31°
2026-04-26 06:08 49.44609 -96.54383 33132 ft 532 kts 31°
2026-04-26 06:09 49.50792 -96.48133 33138 ft 532 kts 31°
2026-04-26 06:09 49.56976 -96.41864 33119 ft 532 kts 31°
2026-04-26 06:10 49.63162 -96.35573 33142 ft 532 kts 31°
2026-04-26 06:10 49.69313 -96.29299 33132 ft 533 kts 31°
2026-04-26 06:11 49.75502 -96.22965 33133 ft 533 kts 31°
2026-04-26 06:11 49.81697 -96.16606 33133 ft 534 kts 32°
2026-04-26 06:12 49.87888 -96.10232 33138 ft 534 kts 32°
2026-04-26 06:12 49.94093 -96.03822 33142 ft 535 kts 32°
2026-04-26 06:13 50.00281 -95.97410 33145 ft 535 kts 32°
2026-04-26 06:13 50.06439 -95.91009 33131 ft 535 kts 32°
2026-04-26 06:14 50.12626 -95.84557 33134 ft 535 kts 32°
2026-04-26 06:14 50.18818 -95.78081 33138 ft 535 kts 32°
2026-04-26 06:15 50.25007 -95.71586 33131 ft 536 kts 32°
2026-04-26 06:15 50.31188 -95.65080 33139 ft 536 kts 32°
2026-04-26 06:16 50.37370 -95.58552 33135 ft 535 kts 32°
2026-04-26 06:16 50.43545 -95.52009 33138 ft 535 kts 32°
2026-04-26 06:17 50.49668 -95.45501 33132 ft 535 kts 32°
2026-04-26 06:17 50.55830 -95.38931 33132 ft 535 kts 33°
2026-04-26 06:18 50.61982 -95.32351 33117 ft 535 kts 33°
2026-04-26 06:18 50.68132 -95.25751 33126 ft 534 kts 33°
2026-04-26 06:19 50.74282 -95.19130 33127 ft 534 kts 33°
2026-04-26 06:19 50.80414 -95.12507 33118 ft 534 kts 33°
2026-04-26 06:20 50.86551 -95.05858 33115 ft 534 kts 33°
2026-04-26 06:20 50.92671 -94.99204 33119 ft 533 kts 33°
2026-04-26 06:21 50.98743 -94.92583 33115 ft 533 kts 34°
2026-04-26 06:21 51.04846 -94.85904 33111 ft 533 kts 34°
2026-04-26 06:22 51.10946 -94.79208 33114 ft 532 kts 34°
2026-04-26 06:22 51.17039 -94.72498 33112 ft 532 kts 34°
2026-04-26 06:23 51.23125 -94.65773 33117 ft 532 kts 34°
2026-04-26 06:23 51.29211 -94.59027 33110 ft 532 kts 34°
2026-04-26 06:24 51.35250 -94.52310 33118 ft 531 kts 34°
2026-04-26 06:24 51.41322 -94.45534 33107 ft 532 kts 35°
2026-04-26 06:25 51.47386 -94.38745 33114 ft 531 kts 35°
2026-04-26 06:25 51.53458 -94.31926 33113 ft 531 kts 35°
2026-04-26 06:26 51.59481 -94.25136 33107 ft 531 kts 35°
2026-04-26 06:26 51.65534 -94.18293 33109 ft 531 kts 35°
2026-04-26 06:27 51.71546 -94.11473 33108 ft 531 kts 35°
2026-04-26 06:27 51.77587 -94.04597 33110 ft 530 kts 36°
2026-04-26 06:28 51.83607 -93.97720 33102 ft 530 kts 36°
2026-04-26 06:28 51.89621 -93.90830 33109 ft 529 kts 36°
2026-04-26 06:29 51.95617 -93.83937 33109 ft 528 kts 36°
2026-04-26 06:29 52.01599 -93.77035 33108 ft 527 kts 36°
2026-04-26 06:30 52.07529 -93.70172 33095 ft 526 kts 36°
2026-04-26 06:30 52.13490 -93.63250 33108 ft 525 kts 36°
2026-04-26 06:31 52.19438 -93.56320 33103 ft 524 kts 36°
2026-04-26 06:31 52.25350 -93.49407 33106 ft 523 kts 37°
2026-04-26 06:32 52.31213 -93.42529 33100 ft 521 kts 37°
2026-04-26 06:32 52.37097 -93.35605 33093 ft 520 kts 37°
2026-04-26 06:33 52.42970 -93.28669 33088 ft 520 kts 37°
2026-04-26 06:33 52.48830 -93.21726 33105 ft 519 kts 37°
2026-04-26 06:34 52.54640 -93.14819 33089 ft 518 kts 37°
2026-04-26 06:34 52.60474 -93.07859 33086 ft 518 kts 37°
2026-04-26 06:35 52.66324 -93.00857 33102 ft 518 kts 37°
2026-04-26 06:35 52.72134 -92.93880 33094 ft 518 kts 38°
2026-04-26 06:36 52.77964 -92.86856 33096 ft 518 kts 38°
2026-04-26 06:36 52.83789 -92.79813 33095 ft 519 kts 38°
2026-04-26 06:37 52.89614 -92.72747 33090 ft 519 kts 38°
2026-04-26 06:37 52.95435 -92.65660 33090 ft 519 kts 38°
2026-04-26 06:38 53.01244 -92.58565 33084 ft 519 kts 38°
2026-04-26 06:38 53.07016 -92.51491 33085 ft 519 kts 38°
2026-04-26 06:39 53.12824 -92.44346 33083 ft 518 kts 38°
2026-04-26 06:39 53.18618 -92.37196 33076 ft 518 kts 38°
2026-04-26 06:40 53.24404 -92.30032 33076 ft 518 kts 38°
2026-04-26 06:40 53.30192 -92.22840 33063 ft 517 kts 38°
2026-04-26 06:41 53.35924 -92.15693 33055 ft 517 kts 39°
2026-04-26 06:41 53.41686 -92.08483 33044 ft 516 kts 39°
2026-04-26 06:42 53.47432 -92.01269 33036 ft 515 kts 39°
2026-04-26 06:42 53.53157 -91.94055 33034 ft 514 kts 39°
2026-04-26 06:43 53.58841 -91.86870 33041 ft 514 kts 39°
2026-04-26 06:43 53.64554 -91.79622 33050 ft 513 kts 39°
2026-04-26 06:44 53.70254 -91.72366 33056 ft 513 kts 39°
2026-04-26 06:44 53.75947 -91.65093 33068 ft 513 kts 39°
2026-04-26 06:45 53.81625 -91.57814 33077 ft 512 kts 39°
2026-04-26 06:45 53.87304 -91.50508 33079 ft 512 kts 39°
2026-04-26 06:46 53.92970 -91.43194 33085 ft 512 kts 39°
2026-04-26 06:46 53.98627 -91.35864 33083 ft 511 kts 40°
2026-04-26 06:47 54.04284 -91.28510 33085 ft 511 kts 40°
2026-04-26 06:47 54.09892 -91.21194 33088 ft 511 kts 40°
2026-04-26 06:48 54.15533 -91.13810 33087 ft 510 kts 40°
2026-04-26 06:48 54.21156 -91.06423 33088 ft 510 kts 40°
2026-04-26 06:49 54.26776 -90.99013 33095 ft 510 kts 40°
2026-04-26 06:49 54.31440 -90.92844 33090 ft 509 kts 40°
2026-04-26 06:50 54.37050 -90.85399 33092 ft 509 kts 40°
2026-04-26 06:50 54.42646 -90.77946 33096 ft 509 kts 40°
2026-04-26 06:51 54.48235 -90.70477 33095 ft 509 kts 41°
2026-04-26 06:51 54.56583 -90.59270 33096 ft 509 kts 41°
2026-04-26 06:52 54.62163 -90.51746 33104 ft 509 kts 41°
2026-04-26 06:52 54.67741 -90.44198 33105 ft 509 kts 41°
2026-04-26 06:53 54.73316 -90.36627 33107 ft 509 kts 41°
2026-04-26 06:53 54.78886 -90.29034 33106 ft 509 kts 41°
2026-04-26 06:54 54.84444 -90.21431 33109 ft 509 kts 41°
2026-04-26 06:54 54.90004 -90.13797 33115 ft 509 kts 41°
2026-04-26 06:55 54.95563 -90.06138 33115 ft 509 kts 41°
2026-04-26 06:55 55.01022 -89.98449 33114 ft 507 kts 45°
2026-04-26 06:56 55.06215 -89.90112 33122 ft 506 kts 47°
2026-04-26 06:56 55.11318 -89.81669 33122 ft 505 kts 47°
2026-04-26 06:57 55.16428 -89.73223 33117 ft 505 kts 47°
2026-04-26 06:57 55.21544 -89.64796 33129 ft 504 kts 47°
2026-04-26 06:58 55.26654 -89.56373 33118 ft 504 kts 47°
2026-04-26 06:58 55.31751 -89.47941 33123 ft 503 kts 47°
2026-04-26 06:59 55.36798 -89.39556 33127 ft 502 kts 48°
2026-04-26 06:59 55.41862 -89.31111 33124 ft 501 kts 48°
2026-04-26 07:00 55.46912 -89.22656 33129 ft 500 kts 48°
2026-04-26 07:00 55.51959 -89.14175 33133 ft 500 kts 48°
2026-04-26 07:01 55.56992 -89.05687 33134 ft 500 kts 49°
2026-04-26 07:01 55.62014 -88.97185 33134 ft 499 kts 49°
2026-04-26 07:02 55.67028 -88.88665 33133 ft 499 kts 49°
2026-04-26 07:02 55.72024 -88.80144 33139 ft 498 kts 49°
2026-04-26 07:03 55.77015 -88.71602 33142 ft 498 kts 49°
2026-04-26 07:03 55.81961 -88.63101 33140 ft 498 kts 50°
2026-04-26 07:04 55.86934 -88.54525 33145 ft 497 kts 50°
2026-04-26 07:04 55.91892 -88.45941 33161 ft 497 kts 50°
2026-04-26 07:05 55.96848 -88.37329 33158 ft 497 kts 50°
2026-04-26 07:05 56.01790 -88.28708 33150 ft 496 kts 50°
2026-04-26 07:06 56.06723 -88.20070 33147 ft 496 kts 51°
2026-04-26 07:06 56.11646 -88.11418 33148 ft 495 kts 51°
2026-04-26 07:07 56.16560 -88.02748 33145 ft 495 kts 51°
2026-04-26 07:07 56.21458 -87.94072 33147 ft 495 kts 51°
2026-04-26 07:08 56.26327 -87.85416 33159 ft 494 kts 51°
2026-04-26 07:08 56.31222 -87.76681 33150 ft 494 kts 51°
2026-04-26 07:09 56.36098 -87.67946 33149 ft 494 kts 51°
2026-04-26 07:09 56.40967 -87.59191 33153 ft 494 kts 50°
2026-04-26 07:11 56.53064 -87.37293 33155 ft 493 kts 51°
2026-04-26 07:11 56.57902 -87.28476 33155 ft 492 kts 51°
2026-04-26 07:12 56.62726 -87.19651 33157 ft 492 kts 51°
2026-04-26 07:12 56.67542 -87.10806 33153 ft 492 kts 51°
2026-04-26 07:13 56.72318 -87.02002 33164 ft 491 kts 52°
2026-04-26 07:13 56.77126 -86.93106 33163 ft 491 kts 52°
2026-04-26 07:14 56.81883 -86.84266 33163 ft 490 kts 52°
2026-04-26 07:14 56.86660 -86.75358 33168 ft 490 kts 53°
2026-04-26 07:15 56.91427 -86.66431 33171 ft 490 kts 53°
2026-04-26 07:15 56.96184 -86.57490 33174 ft 489 kts 53°
2026-04-26 07:16 57.00929 -86.48537 33181 ft 489 kts 53°
2026-04-26 07:16 57.05664 -86.39567 33189 ft 489 kts 54°
2026-04-26 07:17 57.10390 -86.30579 33184 ft 489 kts 54°
2026-04-26 07:17 57.15079 -86.21628 33181 ft 488 kts 54°
2026-04-26 07:18 57.19781 -86.12615 33185 ft 488 kts 54°
2026-04-26 07:18 57.24479 -86.03575 33182 ft 487 kts 54°
2026-04-26 07:19 57.29174 -85.94505 33189 ft 487 kts 55°
2026-04-26 07:19 57.33827 -85.85481 33191 ft 487 kts 55°
2026-04-26 07:20 57.38503 -85.76375 33199 ft 487 kts 55°
2026-04-26 07:20 57.43170 -85.67252 33202 ft 487 kts 55°
2026-04-26 07:21 57.47832 -85.58103 33212 ft 487 kts 56°
2026-04-26 07:21 57.52486 -85.48931 33208 ft 487 kts 56°
2026-04-26 07:22 57.57105 -85.39795 33225 ft 488 kts 56°
2026-04-26 07:22 57.61749 -85.30572 33219 ft 488 kts 56°
2026-04-26 07:23 57.66396 -85.21305 33221 ft 488 kts 56°
2026-04-26 07:23 57.71037 -85.12013 33225 ft 488 kts 56°
2026-04-26 07:24 57.75643 -85.02753 33227 ft 489 kts 56°
2026-04-26 07:24 57.80276 -84.93404 33230 ft 489 kts 56°
2026-04-26 07:25 57.84903 -84.84026 33238 ft 489 kts 56°
2026-04-26 07:25 57.89518 -84.74636 33241 ft 489 kts 56°
2026-04-26 07:26 57.94135 -84.65204 33245 ft 490 kts 56°
2026-04-26 07:26 57.98719 -84.55800 33245 ft 490 kts 56°
2026-04-26 07:27 58.03330 -84.46302 33252 ft 490 kts 56°
2026-04-26 07:27 58.07933 -84.36781 33256 ft 491 kts 56°
2026-04-26 07:28 58.12531 -84.27232 33258 ft 491 kts 56°
2026-04-26 07:28 58.17128 -84.17645 33260 ft 492 kts 56°
2026-04-26 07:29 58.21719 -84.08031 33264 ft 492 kts 56°
2026-04-26 07:29 58.26281 -83.98439 33269 ft 492 kts 56°
2026-04-26 07:30 58.30864 -83.88760 33274 ft 492 kts 56°
2026-04-26 07:30 58.35442 -83.79053 33280 ft 493 kts 56°
2026-04-26 07:31 58.40020 -83.69304 33284 ft 493 kts 56°
2026-04-26 07:31 58.44590 -83.59532 33296 ft 493 kts 56°
2026-04-26 07:32 58.49131 -83.49780 33296 ft 494 kts 56°
2026-04-26 07:32 58.53689 -83.39950 33289 ft 494 kts 56°
2026-04-26 07:33 58.58248 -83.30077 33293 ft 494 kts 56°
2026-04-26 07:33 58.62806 -83.20163 33298 ft 494 kts 56°
2026-04-26 07:34 58.67320 -83.10303 33300 ft 494 kts 56°
2026-04-26 07:34 58.71856 -83.00353 33302 ft 494 kts 56°
2026-04-26 07:35 58.76384 -82.90377 33307 ft 494 kts 55°
2026-04-26 07:35 58.80907 -82.80369 33310 ft 495 kts 55°
2026-04-26 07:36 58.85422 -82.70335 33314 ft 495 kts 55°
2026-04-26 07:36 58.89902 -82.60337 33321 ft 495 kts 55°
2026-04-26 07:37 58.94407 -82.50239 33329 ft 495 kts 55°
2026-04-26 07:37 58.98908 -82.40104 33328 ft 495 kts 55°
2026-04-26 07:38 59.03399 -82.29950 33332 ft 496 kts 55°
2026-04-26 07:38 59.07862 -82.19815 33336 ft 496 kts 55°
2026-04-26 07:39 59.12339 -82.09601 33340 ft 496 kts 55°
2026-04-26 07:39 59.16060 -82.01078 33345 ft 496 kts 55°
2026-04-26 07:40 59.20532 -81.90794 33345 ft 497 kts 55°
2026-04-26 07:40 59.24995 -81.80483 33346 ft 497 kts 55°
2026-04-26 07:41 59.29455 -81.70136 33350 ft 497 kts 55°
2026-04-26 07:41 59.33885 -81.59812 33355 ft 498 kts 55°
2026-04-26 07:42 59.38331 -81.49403 33352 ft 498 kts 55°
2026-04-26 07:42 59.42781 -81.38938 33361 ft 499 kts 55°
2026-04-26 07:43 59.47227 -81.28437 33365 ft 499 kts 55°
2026-04-26 07:43 59.51660 -81.17917 33349 ft 499 kts 55°
2026-04-26 07:44 59.56063 -81.07423 33368 ft 500 kts 55°
2026-04-26 07:44 59.60490 -80.96820 33368 ft 500 kts 55°
2026-04-26 07:45 59.64920 -80.86166 33377 ft 500 kts 55°
2026-04-26 07:45 59.69300 -80.75579 33377 ft 500 kts 55°
2026-04-26 07:46 59.73733 -80.64818 33378 ft 501 kts 55°
2026-04-26 07:46 59.78100 -80.54166 33377 ft 501 kts 55°
2026-04-26 07:47 59.82498 -80.43391 33384 ft 501 kts 55°
2026-04-26 07:47 59.86887 -80.32585 33388 ft 502 kts 55°
2026-04-26 07:48 59.91243 -80.21812 33394 ft 502 kts 55°
2026-04-26 07:48 59.95622 -80.10936 33390 ft 502 kts 55°
2026-04-26 07:49 59.99938 -79.99972 33403 ft 501 kts 58°
2026-04-26 07:49 60.03531 -79.88116 33406 ft 497 kts 64°
2026-04-26 07:50 60.08577 -79.69999 33406 ft 498 kts 64°
2026-04-26 07:50 60.11967 -79.57876 33412 ft 499 kts 64°
2026-04-26 07:51 60.15377 -79.45725 33411 ft 499 kts 64°
2026-04-26 07:51 60.18781 -79.33554 33416 ft 500 kts 64°
2026-04-26 07:52 60.22149 -79.21443 33420 ft 500 kts 64°
2026-04-26 07:52 60.25529 -79.09217 33421 ft 500 kts 64°
2026-04-26 07:53 60.28898 -78.96964 33425 ft 500 kts 64°
2026-04-26 07:53 60.32257 -78.84678 33428 ft 500 kts 64°
2026-04-26 07:54 60.35611 -78.72345 33429 ft 500 kts 64°
2026-04-26 07:54 60.38928 -78.60082 33436 ft 500 kts 64°
2026-04-26 07:55 60.42259 -78.47699 33437 ft 501 kts 64°
2026-04-26 07:55 60.45580 -78.35286 33446 ft 501 kts 64°
2026-04-26 07:56 60.48888 -78.22852 33443 ft 501 kts 64°
2026-04-26 07:56 60.52192 -78.10363 33444 ft 502 kts 64°
2026-04-26 07:57 60.55483 -77.97858 33450 ft 502 kts 64°
2026-04-26 07:57 60.58748 -77.85376 33460 ft 502 kts 64°
2026-04-26 07:58 60.62020 -77.72802 33462 ft 503 kts 64°
2026-04-26 07:58 60.65286 -77.60176 33471 ft 503 kts 64°
2026-04-26 07:59 60.68540 -77.47528 33471 ft 503 kts 64°
2026-04-26 07:59 60.71782 -77.34851 33481 ft 504 kts 64°
2026-04-26 08:00 60.74997 -77.22213 33479 ft 504 kts 64°
2026-04-26 08:00 60.78219 -77.09469 33485 ft 504 kts 64°
2026-04-26 08:01 60.81431 -76.96695 33484 ft 504 kts 64°
2026-04-26 08:01 60.84629 -76.83902 33490 ft 504 kts 64°
2026-04-26 08:02 60.87818 -76.71068 33489 ft 505 kts 64°
2026-04-26 08:02 60.90999 -76.58193 33501 ft 505 kts 64°
2026-04-26 08:03 60.94145 -76.45386 33505 ft 505 kts 64°
2026-04-26 08:03 60.97303 -76.32456 33498 ft 506 kts 64°
2026-04-26 08:04 61.00451 -76.19485 33504 ft 506 kts 64°
2026-04-26 08:04 61.03586 -76.06494 33507 ft 506 kts 64°
2026-04-26 08:05 61.06712 -75.93464 33512 ft 506 kts 64°
2026-04-26 08:05 61.09826 -75.80405 33511 ft 506 kts 64°
2026-04-26 08:06 61.12929 -75.67311 33519 ft 506 kts 64°
2026-04-26 08:06 61.16016 -75.54205 33523 ft 506 kts 64°
2026-04-26 08:07 61.19092 -75.41070 33523 ft 506 kts 64°
2026-04-26 08:07 61.22131 -75.28012 33529 ft 506 kts 64°
2026-04-26 08:08 61.25184 -75.14815 33534 ft 507 kts 64°
2026-04-26 08:08 61.28223 -75.01595 33538 ft 507 kts 64°
2026-04-26 08:09 61.31250 -74.88347 33542 ft 507 kts 64°
2026-04-26 08:09 61.34268 -74.75054 33543 ft 507 kts 64°
2026-04-26 08:10 61.37274 -74.61733 33547 ft 508 kts 64°
2026-04-26 08:10 61.40253 -74.48450 33555 ft 508 kts 64°
2026-04-26 08:11 61.43240 -74.35046 33555 ft 508 kts 64°
2026-04-26 08:11 61.46215 -74.21610 33558 ft 509 kts 64°
2026-04-26 08:12 61.49175 -74.08159 33567 ft 509 kts 64°
2026-04-26 08:12 61.52124 -73.94667 33571 ft 509 kts 64°
2026-04-26 08:13 61.55046 -73.81215 33580 ft 510 kts 64°
2026-04-26 08:13 61.57974 -73.67649 33576 ft 510 kts 64°
2026-04-26 08:14 61.60892 -73.54043 33576 ft 510 kts 64°
2026-04-26 08:14 61.63798 -73.40402 33562 ft 511 kts 64°
2026-04-26 08:15 61.66673 -73.26817 33563 ft 511 kts 64°
2026-04-26 08:15 61.69554 -73.13114 33560 ft 512 kts 64°
2026-04-26 08:16 61.72423 -72.99381 33562 ft 512 kts 64°
2026-04-26 08:16 61.75283 -72.85594 33552 ft 513 kts 64°
2026-04-26 08:17 61.78134 -72.71764 33547 ft 513 kts 64°
2026-04-26 08:17 61.80970 -72.57910 33541 ft 514 kts 64°
2026-04-26 08:18 61.83792 -72.44025 33535 ft 514 kts 64°
2026-04-26 08:18 61.86587 -72.30185 33530 ft 514 kts 64°
2026-04-26 08:19 61.89389 -72.16218 33526 ft 514 kts 64°
2026-04-26 08:19 61.92175 -72.02230 33520 ft 514 kts 64°
2026-04-26 08:20 61.94947 -71.88217 33518 ft 514 kts 64°
2026-04-26 08:20 61.97688 -71.74265 33517 ft 514 kts 64°
2026-04-26 08:21 62.00433 -71.60190 33509 ft 515 kts 65°
2026-04-26 08:21 62.03161 -71.46109 33507 ft 515 kts 65°
2026-04-26 08:22 62.05880 -71.31973 33503 ft 515 kts 65°
2026-04-26 08:22 62.08584 -71.17816 33494 ft 516 kts 65°
2026-04-26 08:23 62.11280 -71.03596 33489 ft 516 kts 65°
2026-04-26 08:23 62.13961 -70.89357 33485 ft 516 kts 65°
2026-04-26 08:24 62.16611 -70.75175 33484 ft 517 kts 65°
2026-04-26 08:24 62.19285 -70.60767 33478 ft 517 kts 65°
2026-04-26 08:25 62.21909 -70.46517 33477 ft 517 kts 65°
2026-04-26 08:25 62.24538 -70.32141 33453 ft 518 kts 65°
2026-04-26 08:26 62.27157 -70.17710 33469 ft 518 kts 65°
2026-04-26 08:26 62.29757 -70.03274 33473 ft 518 kts 65°
2026-04-26 08:27 62.32344 -69.88807 33466 ft 518 kts 65°
2026-04-26 08:27 62.34901 -69.74395 33475 ft 519 kts 65°
2026-04-26 08:28 62.37461 -69.59856 33464 ft 519 kts 65°
2026-04-26 08:28 62.40009 -69.45278 33469 ft 519 kts 65°
2026-04-26 08:29 62.42538 -69.30697 33473 ft 520 kts 65°
2026-04-26 08:29 62.45061 -69.16031 33477 ft 520 kts 65°
2026-04-26 08:30 62.47144 -69.03847 33474 ft 520 kts 65°
2026-04-26 08:30 62.49638 -68.89139 33479 ft 520 kts 65°
2026-04-26 08:31 62.52121 -68.74386 33479 ft 521 kts 65°
2026-04-26 08:31 62.54586 -68.59620 33492 ft 521 kts 65°
2026-04-26 08:32 62.57025 -68.44902 33485 ft 522 kts 65°
2026-04-26 08:32 62.59468 -68.30033 33492 ft 522 kts 65°
2026-04-26 08:33 62.61892 -68.15155 33492 ft 522 kts 65°
2026-04-26 08:33 62.64288 -68.00339 33494 ft 522 kts 65°
2026-04-26 08:34 62.66682 -67.85409 33503 ft 523 kts 65°
2026-04-26 08:34 62.69060 -67.70457 33499 ft 523 kts 65°
2026-04-26 08:35 62.71422 -67.55475 33499 ft 523 kts 65°
2026-04-26 08:35 62.73776 -67.40426 33500 ft 524 kts 65°
2026-04-26 08:36 62.76113 -67.25353 33505 ft 525 kts 65°
2026-04-26 08:36 62.78440 -67.10235 33495 ft 525 kts 65°
2026-04-26 08:37 62.80418 -66.94910 33488 ft 532 kts 74°
2026-04-26 08:37 62.81461 -66.78796 33488 ft 535 kts 78°
2026-04-26 08:38 62.82384 -66.62655 33496 ft 535 kts 77°
2026-04-26 08:38 62.83333 -66.46506 33487 ft 535 kts 77°
2026-04-26 08:39 62.84301 -66.30357 33489 ft 535 kts 77°
2026-04-26 08:39 62.85254 -66.14275 33488 ft 536 kts 77°
2026-04-26 08:40 62.86195 -65.98039 33484 ft 536 kts 77°
2026-04-26 08:40 62.87111 -65.81830 33484 ft 537 kts 77°
2026-04-26 08:41 62.88010 -65.65576 33478 ft 537 kts 77°
2026-04-26 08:41 62.88891 -65.49296 33476 ft 537 kts 77°
2026-04-26 08:42 62.89749 -65.33107 33484 ft 538 kts 77°
2026-04-26 08:42 62.90593 -65.16823 33497 ft 538 kts 77°
2026-04-26 08:43 62.91419 -65.00495 33502 ft 538 kts 78°
2026-04-26 08:43 62.92226 -64.84151 33509 ft 538 kts 78°
2026-04-26 08:44 62.93016 -64.67788 33516 ft 539 kts 78°
2026-04-26 08:44 62.93786 -64.51407 33499 ft 539 kts 78°
2026-04-26 08:45 62.94535 -64.35099 33496 ft 540 kts 78°
2026-04-26 08:45 62.95270 -64.18658 33495 ft 540 kts 78°
2026-04-26 08:46 62.95985 -64.02225 33494 ft 540 kts 78°
2026-04-26 08:46 62.96684 -63.85727 33491 ft 541 kts 78°
2026-04-26 08:47 62.97361 -63.69257 33487 ft 541 kts 78°
2026-04-26 08:47 62.98017 -63.52860 33486 ft 542 kts 78°
2026-04-26 08:48 62.98658 -63.36343 33486 ft 542 kts 78°
2026-04-26 08:48 62.99282 -63.19774 33481 ft 543 kts 78°
2026-04-26 08:49 62.99914 -63.03197 33478 ft 541 kts 76°
2026-04-26 08:49 63.01294 -62.87229 33480 ft 531 kts 68°
2026-04-26 08:50 63.03106 -62.71475 33486 ft 531 kts 67°
2026-04-26 08:50 63.04905 -62.55648 33473 ft 533 kts 67°
2026-04-26 08:51 63.07507 -62.31775 33478 ft 534 kts 68°
2026-04-26 08:52 63.09208 -62.15782 33476 ft 535 kts 68°
2026-04-26 08:52 63.10895 -61.99751 33470 ft 536 kts 68°
2026-04-26 08:53 63.12566 -61.83705 33458 ft 536 kts 68°
2026-04-26 08:53 63.14209 -61.67751 33458 ft 536 kts 68°
2026-04-26 08:54 63.15846 -61.51656 33460 ft 536 kts 68°
2026-04-26 08:54 63.17464 -61.35560 33460 ft 536 kts 68°
2026-04-26 08:55 63.19065 -61.19421 33462 ft 536 kts 68°
2026-04-26 08:55 63.20650 -61.03246 33456 ft 537 kts 68°
2026-04-26 08:56 63.22208 -60.87146 33453 ft 537 kts 68°
2026-04-26 08:56 63.23758 -60.70917 33450 ft 537 kts 68°
2026-04-26 08:57 63.25292 -60.54648 33447 ft 538 kts 68°
2026-04-26 08:57 63.26806 -60.38379 33430 ft 538 kts 68°
2026-04-26 08:58 63.28300 -60.22094 33430 ft 538 kts 69°
2026-04-26 08:58 63.29769 -60.05878 33429 ft 538 kts 69°
2026-04-26 08:59 63.31228 -59.89540 33432 ft 539 kts 69°
2026-04-26 08:59 63.32672 -59.73148 33426 ft 539 kts 69°
2026-04-26 09:00 63.34096 -59.56758 33419 ft 540 kts 69°
2026-04-26 09:00 63.35504 -59.40322 33410 ft 540 kts 69°
2026-04-26 09:01 63.36892 -59.23869 33411 ft 540 kts 69°
2026-04-26 09:01 63.38265 -59.07362 33407 ft 541 kts 69°
2026-04-26 09:02 63.39610 -58.90949 33392 ft 541 kts 69°
2026-04-26 09:02 63.40947 -58.74386 33387 ft 542 kts 69°
2026-04-26 09:03 63.42262 -58.57829 33395 ft 542 kts 69°
2026-04-26 09:03 63.43562 -58.41223 33381 ft 543 kts 69°
2026-04-26 09:04 63.44844 -58.24581 33375 ft 543 kts 69°
2026-04-26 09:04 63.46100 -58.07915 33363 ft 545 kts 71°
2026-04-26 09:05 63.46557 -57.90866 33337 ft 562 kts 84°
2026-04-26 09:05 63.45986 -57.73363 33351 ft 565 kts 86°
2026-04-26 09:06 63.45328 -57.55876 33343 ft 564 kts 86°
2026-04-26 09:06 63.44705 -57.38409 33327 ft 562 kts 86°
2026-04-26 09:07 63.44103 -57.20999 33330 ft 561 kts 85°
2026-04-26 09:07 63.43489 -57.03608 33309 ft 561 kts 86°
2026-04-26 09:08 63.42849 -56.86226 33309 ft 561 kts 86°
2026-04-26 09:08 63.42188 -56.68960 33294 ft 561 kts 86°
2026-04-26 09:09 63.41502 -56.51602 33283 ft 561 kts 86°
2026-04-26 09:09 63.40794 -56.34243 33271 ft 562 kts 86°
2026-04-26 09:10 63.40064 -56.16871 33262 ft 562 kts 86°
2026-04-26 09:10 63.39313 -55.99498 33247 ft 562 kts 86°
2026-04-26 09:11 63.38545 -55.82217 33231 ft 563 kts 86°
2026-04-26 09:11 63.37752 -55.64871 33235 ft 563 kts 87°
2026-04-26 09:12 63.36936 -55.47494 33220 ft 563 kts 87°
2026-04-26 09:12 63.36100 -55.30141 33212 ft 563 kts 87°
2026-04-26 09:13 63.35243 -55.12791 33205 ft 563 kts 88°
2026-04-26 09:13 63.34364 -54.95445 33191 ft 563 kts 88°
2026-04-26 09:14 63.33469 -54.78215 33187 ft 563 kts 88°
2026-04-26 09:14 63.32548 -54.60890 33168 ft 563 kts 88°
2026-04-26 09:15 63.31606 -54.43581 33157 ft 563 kts 89°
2026-04-26 09:15 63.30644 -54.26295 33143 ft 563 kts 89°
2026-04-26 09:16 63.29662 -54.09034 33138 ft 563 kts 89°
2026-04-26 09:16 63.28659 -53.91782 33127 ft 562 kts 90°
2026-04-26 09:17 63.27636 -53.74561 33120 ft 562 kts 90°
2026-04-26 09:17 63.26770 -53.60268 33113 ft 561 kts 90°
2026-04-26 09:18 63.25538 -53.40325 33099 ft 560 kts 91°
2026-04-26 09:18 63.24458 -53.23215 33090 ft 559 kts 91°
2026-04-26 09:19 63.23360 -53.06162 33080 ft 558 kts 91°
2026-04-26 09:19 63.22432 -52.92002 33061 ft 557 kts 92°
2026-04-26 09:20 63.21300 -52.75023 33060 ft 556 kts 92°
2026-04-26 09:20 63.20150 -52.58087 33048 ft 555 kts 92°
2026-04-26 09:21 63.18983 -52.41200 33033 ft 554 kts 93°
2026-04-26 09:21 63.17796 -52.24343 33023 ft 553 kts 93°
2026-04-26 09:22 63.16592 -52.07528 33007 ft 552 kts 94°
2026-04-26 09:22 63.15376 -51.90842 33001 ft 551 kts 94°
2026-04-26 09:23 63.14137 -51.74111 32988 ft 550 kts 94°
2026-04-26 09:23 63.12880 -51.57426 32978 ft 549 kts 95°
2026-04-26 09:24 63.11606 -51.40802 32967 ft 548 kts 95°
2026-04-26 09:24 63.10316 -51.24222 32946 ft 547 kts 95°
2026-04-26 09:25 63.09007 -51.07659 32933 ft 546 kts 96°
2026-04-26 09:25 63.07691 -50.91268 32923 ft 545 kts 96°
2026-04-26 09:26 63.06349 -50.74796 32911 ft 544 kts 96°
2026-04-26 09:26 63.04992 -50.58389 32892 ft 543 kts 97°
2026-04-26 09:27 63.03620 -50.42047 32894 ft 542 kts 97°
2026-04-26 09:27 63.02230 -50.25723 32871 ft 541 kts 97°
2026-04-26 09:28 63.00827 -50.09453 32859 ft 540 kts 98°
2026-04-26 09:28 62.99783 -49.93142 32848 ft 535 kts 89°
2026-04-26 09:29 62.99570 -49.76912 32854 ft 533 kts 88°
2026-04-26 09:29 62.99359 -49.60607 32848 ft 533 kts 88°
2026-04-26 09:30 62.99103 -49.44302 32851 ft 532 kts 89°
2026-04-26 09:30 62.98804 -49.28015 32846 ft 532 kts 89°
2026-04-26 09:31 62.98479 -49.11772 32841 ft 531 kts 90°
2026-04-26 09:31 62.98141 -48.95672 32825 ft 529 kts 90°
2026-04-26 09:32 62.97785 -48.79517 32808 ft 529 kts 90°
2026-04-26 09:32 62.97412 -48.63374 32794 ft 528 kts 91°
2026-04-26 09:33 62.97022 -48.47286 32778 ft 527 kts 91°
2026-04-26 09:33 62.96614 -48.31212 32767 ft 526 kts 91°
2026-04-26 09:34 62.96188 -48.15176 32757 ft 525 kts 91°
2026-04-26 09:34 62.95744 -47.99162 32754 ft 524 kts 92°
2026-04-26 09:35 62.95284 -47.83195 32753 ft 523 kts 92°
2026-04-26 09:35 62.94805 -47.67232 32752 ft 522 kts 92°
2026-04-26 09:36 62.94314 -47.51433 32749 ft 521 kts 93°
2026-04-26 09:36 62.93802 -47.35550 32750 ft 520 kts 93°
2026-04-26 09:37 62.93273 -47.19700 32755 ft 519 kts 94°
2026-04-26 09:37 62.92732 -47.03996 32751 ft 518 kts 94°
2026-04-26 09:38 62.92170 -46.88225 32753 ft 518 kts 94°
2026-04-26 09:38 62.91591 -46.72466 32755 ft 517 kts 95°
2026-04-26 09:39 62.90996 -46.56758 32752 ft 516 kts 95°
2026-04-26 09:39 62.90384 -46.41073 32749 ft 516 kts 95°
2026-04-26 09:40 62.89756 -46.25426 32745 ft 515 kts 95°
2026-04-26 09:40 62.89111 -46.09786 32747 ft 514 kts 96°
2026-04-26 09:41 62.88453 -45.94253 32746 ft 514 kts 96°
2026-04-26 09:41 62.87775 -45.78668 32738 ft 514 kts 96°
2026-04-26 09:42 62.87079 -45.63074 32744 ft 513 kts 97°
2026-04-26 09:42 62.86366 -45.47483 32740 ft 513 kts 97°
2026-04-26 09:43 62.85643 -45.32040 32740 ft 512 kts 97°
2026-04-26 09:43 62.84898 -45.16520 32733 ft 512 kts 97°
2026-04-26 09:44 62.84136 -45.00999 32729 ft 512 kts 98°
2026-04-26 09:44 62.83356 -44.85503 32722 ft 512 kts 98°
2026-04-26 09:45 62.82565 -44.70102 32719 ft 512 kts 98°
2026-04-26 09:45 62.81754 -44.54645 32717 ft 511 kts 98°
2026-04-26 09:46 62.80926 -44.39200 32720 ft 511 kts 98°
2026-04-26 09:46 62.80082 -44.23784 32721 ft 510 kts 99°
2026-04-26 09:47 62.79223 -44.08395 32731 ft 509 kts 99°
2026-04-26 09:47 62.78355 -43.93161 32749 ft 508 kts 99°
2026-04-26 09:48 62.77465 -43.77846 32775 ft 507 kts 99°
2026-04-26 09:48 62.76562 -43.62599 32807 ft 506 kts 100°
2026-04-26 09:49 62.75644 -43.47390 32819 ft 505 kts 100°
2026-04-26 09:49 62.74710 -43.32195 32831 ft 504 kts 100°
2026-04-26 09:50 62.73767 -43.17128 32845 ft 503 kts 101°
2026-04-26 09:50 62.72799 -43.01917 32854 ft 503 kts 101°
2026-04-26 09:51 62.71826 -42.86916 32855 ft 503 kts 101°
2026-04-26 09:51 62.70830 -42.71817 32859 ft 503 kts 101°
2026-04-26 09:52 62.69818 -42.56699 32850 ft 502 kts 101°
2026-04-26 09:52 62.68276 -42.34177 32865 ft 501 kts 101°
2026-04-26 09:53 62.67228 -42.19187 32862 ft 500 kts 102°
2026-04-26 09:53 62.66174 -42.04325 32863 ft 500 kts 102°
2026-04-26 09:54 62.65099 -41.89391 32845 ft 499 kts 102°
2026-04-26 09:54 62.64008 -41.74486 32851 ft 498 kts 102°
2026-04-26 09:55 62.62910 -41.59708 32847 ft 497 kts 102°
2026-04-26 09:55 62.61792 -41.44875 32847 ft 497 kts 102°
2026-04-26 09:56 62.60652 -41.29991 33287 ft 500 kts 102°
2026-04-26 09:56 62.60077 -41.22546 33775 ft 497 kts 102°
2026-04-26 09:56 62.59502 -41.15162 34123 ft 496 kts 102°
2026-04-26 09:57 62.58921 -41.07752 34381 ft 498 kts 102°
2026-04-26 09:57 62.58335 -41.00339 34625 ft 499 kts 102°
2026-04-26 09:57 62.57752 -40.93013 34765 ft 502 kts 102°
2026-04-26 09:57 62.57152 -40.85543 34799 ft 504 kts 102°
2026-04-26 09:58 62.55944 -40.70613 34819 ft 499 kts 103°
2026-04-26 09:58 62.54734 -40.55862 34821 ft 496 kts 103°
2026-04-26 09:59 62.53720 -40.43662 34818 ft 494 kts 103°
2026-04-26 09:59 62.52277 -40.26541 34822 ft 494 kts 103°
2026-04-26 10:00 62.51033 -40.11955 34816 ft 494 kts 103°
2026-04-26 10:00 62.49759 -39.97303 34820 ft 495 kts 104°
2026-04-26 10:01 62.48247 -39.82858 34814 ft 495 kts 106°
2026-04-26 10:01 62.46594 -39.68394 34808 ft 496 kts 107°
2026-04-26 10:02 62.44955 -39.53988 34815 ft 492 kts 106°
2026-04-26 10:02 62.43331 -39.39575 34805 ft 494 kts 106°
2026-04-26 10:03 62.41709 -39.25226 34797 ft 495 kts 106°
2026-04-26 10:03 62.40062 -39.10790 34800 ft 496 kts 106°
2026-04-26 10:04 62.38397 -38.96354 34789 ft 496 kts 106°
2026-04-26 10:04 62.36720 -38.81970 34791 ft 495 kts 106°
2026-04-26 10:05 62.35029 -38.67610 34783 ft 493 kts 107°
2026-04-26 10:05 62.33328 -38.53312 34786 ft 492 kts 107°
2026-04-26 10:06 62.31618 -38.39071 34791 ft 491 kts 107°
2026-04-26 10:06 62.29895 -38.24866 34780 ft 491 kts 107°
2026-04-26 10:07 62.28174 -38.10803 34776 ft 490 kts 107°
2026-04-26 10:07 62.26428 -37.96675 34784 ft 489 kts 107°
2026-04-26 10:08 62.24967 -37.84949 34792 ft 490 kts 107°
2026-04-26 10:08 62.23191 -37.70819 34782 ft 490 kts 107°
2026-04-26 10:09 62.21402 -37.56722 34777 ft 490 kts 108°
2026-04-26 10:09 62.19599 -37.42633 34783 ft 490 kts 108°
2026-04-26 10:10 62.17781 -37.28567 34773 ft 490 kts 108°
2026-04-26 10:10 62.15960 -37.14595 34785 ft 490 kts 108°
2026-04-26 10:11 62.14111 -37.00539 34771 ft 491 kts 108°
2026-04-26 10:11 62.12247 -36.86492 34784 ft 490 kts 108°
2026-04-26 10:12 62.10373 -36.72488 34777 ft 490 kts 108°
2026-04-26 10:12 62.08483 -36.58497 34778 ft 490 kts 109°
2026-04-26 10:13 62.06595 -36.44633 34774 ft 489 kts 109°
2026-04-26 10:13 62.04678 -36.30690 34768 ft 490 kts 109°
2026-04-26 10:14 62.02751 -36.16779 34761 ft 489 kts 109°
2026-04-26 10:14 62.00810 -36.02893 34769 ft 488 kts 109°
2026-04-26 10:15 61.98858 -35.89044 34766 ft 488 kts 109°
2026-04-26 10:15 61.96907 -35.75317 34766 ft 488 kts 109°
2026-04-26 10:16 61.94930 -35.61522 34762 ft 487 kts 109°
2026-04-26 10:16 61.92943 -35.47768 34771 ft 487 kts 110°
2026-04-26 10:17 61.90938 -35.34004 34770 ft 487 kts 110°
2026-04-26 10:17 61.88922 -35.20276 34756 ft 487 kts 110°
2026-04-26 10:18 61.86905 -35.06657 34766 ft 487 kts 110°
2026-04-26 10:18 61.84863 -34.92976 34769 ft 487 kts 110°
2026-04-26 10:19 61.82807 -34.79307 34764 ft 487 kts 110°
2026-04-26 10:19 61.80736 -34.65650 34766 ft 487 kts 110°
2026-04-26 10:20 61.78656 -34.52038 34761 ft 486 kts 110°
2026-04-26 10:20 61.76572 -34.38508 34779 ft 486 kts 111°
2026-04-26 10:21 61.74464 -34.24927 34762 ft 486 kts 111°
2026-04-26 10:21 61.72347 -34.11388 34766 ft 485 kts 111°
2026-04-26 10:22 61.70219 -33.97891 34764 ft 485 kts 111°
2026-04-26 10:22 61.68079 -33.84412 34770 ft 484 kts 111°
2026-04-26 10:23 61.65928 -33.70970 34771 ft 484 kts 111°
2026-04-26 10:23 61.63782 -33.57662 34773 ft 483 kts 111°
2026-04-26 10:24 61.61594 -33.44192 34778 ft 483 kts 111°
2026-04-26 10:24 61.59425 -33.30934 34779 ft 483 kts 112°
2026-04-26 10:25 61.57229 -33.17615 34774 ft 483 kts 112°
2026-04-26 10:25 61.55023 -33.04324 34792 ft 483 kts 112°
2026-04-26 10:26 61.52801 -32.91040 34778 ft 483 kts 112°
2026-04-26 10:26 61.50569 -32.77793 34788 ft 482 kts 112°
2026-04-26 10:27 61.48328 -32.64584 34788 ft 481 kts 112°
2026-04-26 10:27 61.46076 -32.51402 34805 ft 481 kts 112°
2026-04-26 10:28 61.43809 -32.38233 34806 ft 480 kts 112°
2026-04-26 10:28 61.41537 -32.25120 34798 ft 480 kts 112°
2026-04-26 10:29 61.39253 -32.12037 34801 ft 480 kts 112°
2026-04-26 10:29 61.36972 -31.99054 34809 ft 479 kts 113°
2026-04-26 10:30 61.34664 -31.86010 34807 ft 478 kts 113°
2026-04-26 10:30 61.32348 -31.73013 34811 ft 478 kts 113°
2026-04-26 10:31 61.30020 -31.60036 34815 ft 480 kts 113°
2026-04-26 10:31 61.27683 -31.47097 34818 ft 480 kts 113°
2026-04-26 10:32 61.25330 -31.34149 34812 ft 477 kts 113°
2026-04-26 10:32 61.22978 -31.21297 34821 ft 475 kts 114°
2026-04-26 10:33 61.20624 -31.08524 34818 ft 473 kts 114°
2026-04-26 10:33 61.18266 -30.95809 34826 ft 471 kts 114°
2026-04-26 10:34 61.15902 -30.83151 34827 ft 471 kts 114°
2026-04-26 10:34 61.13522 -30.70484 34821 ft 471 kts 114°
2026-04-26 10:35 61.11135 -30.57864 34840 ft 471 kts 114°
2026-04-26 10:35 61.08736 -30.45256 34850 ft 472 kts 114°
2026-04-26 10:36 61.06334 -30.32715 34837 ft 472 kts 114°
2026-04-26 10:36 61.03909 -30.20129 34842 ft 471 kts 114°
2026-04-26 10:37 61.01477 -30.07575 34849 ft 470 kts 114°
2026-04-26 10:37 60.99176 -29.94952 34846 ft 470 kts 110°
2026-04-26 10:38 60.97214 -29.82102 34851 ft 470 kts 110°
2026-04-26 10:38 60.95261 -29.69266 34848 ft 469 kts 110°
2026-04-26 10:39 60.93303 -29.56576 34856 ft 468 kts 110°
2026-04-26 10:39 60.91305 -29.43797 34848 ft 469 kts 110°
2026-04-26 10:40 60.89290 -29.31025 34849 ft 468 kts 110°
2026-04-26 10:40 60.87288 -29.18423 34861 ft 467 kts 110°
2026-04-26 10:41 60.85265 -29.05775 34864 ft 466 kts 110°
2026-04-26 10:41 60.83231 -28.93150 34864 ft 465 kts 110°
2026-04-26 10:42 60.81191 -28.80573 34861 ft 464 kts 111°
2026-04-26 10:42 60.79141 -28.68023 34869 ft 464 kts 111°
2026-04-26 10:43 60.77083 -28.55518 34870 ft 463 kts 111°
2026-04-26 10:43 60.75018 -28.43052 34876 ft 463 kts 111°
2026-04-26 10:44 60.72951 -28.30660 34877 ft 463 kts 111°
2026-04-26 10:44 60.70861 -28.18216 34878 ft 463 kts 111°
2026-04-26 10:45 60.68759 -28.05780 34879 ft 463 kts 111°
2026-04-26 10:45 60.66645 -27.93363 34872 ft 462 kts 111°
2026-04-26 10:46 60.64526 -27.80995 34875 ft 461 kts 111°
2026-04-26 10:46 60.62403 -27.68690 34883 ft 460 kts 111°
2026-04-26 10:47 60.60281 -27.56470 34883 ft 459 kts 111°
2026-04-26 10:47 60.58145 -27.44254 34886 ft 458 kts 111°
2026-04-26 10:48 60.56000 -27.32061 34887 ft 457 kts 111°
2026-04-26 10:48 60.53847 -27.19902 34890 ft 457 kts 112°
2026-04-26 10:49 60.51683 -27.07762 34889 ft 456 kts 112°
2026-04-26 10:49 60.49527 -26.95746 34893 ft 456 kts 112°
2026-04-26 10:50 60.47702 -26.85633 34892 ft 455 kts 112°
2026-04-26 10:50 60.45164 -26.71654 34901 ft 454 kts 112°
2026-04-26 10:51 60.41869 -26.53655 34897 ft 454 kts 112°
2026-04-26 10:52 60.39673 -26.41756 34913 ft 453 kts 112°
2026-04-26 10:52 60.37456 -26.29814 34898 ft 453 kts 112°
2026-04-26 10:53 60.35234 -26.17920 34907 ft 452 kts 112°
2026-04-26 10:53 60.33004 -26.06060 34897 ft 451 kts 112°
2026-04-26 10:54 60.29667 -25.88437 34908 ft 449 kts 112°
2026-04-26 10:54 60.27424 -25.76685 34919 ft 450 kts 112°
2026-04-26 10:55 60.25168 -25.64933 34907 ft 449 kts 113°
2026-04-26 10:55 60.23272 -25.55112 34914 ft 448 kts 113°
2026-04-26 10:56 60.20645 -25.41582 34917 ft 446 kts 113°
2026-04-26 10:56 60.18380 -25.29990 34929 ft 445 kts 113°
2026-04-26 10:57 60.16491 -25.20376 34909 ft 445 kts 113°
2026-04-26 10:57 60.14209 -25.08820 34916 ft 444 kts 113°
2026-04-26 10:58 60.11926 -24.97327 34920 ft 443 kts 113°
2026-04-26 10:58 60.09630 -24.85839 34927 ft 444 kts 113°
2026-04-26 10:59 60.07343 -24.74453 34920 ft 443 kts 114°
2026-04-26 10:59 60.05031 -24.63010 34928 ft 442 kts 114°
2026-04-26 11:00 60.02715 -24.51616 34931 ft 442 kts 114°
2026-04-26 11:00 60.00393 -24.40250 34932 ft 441 kts 114°
2026-04-26 11:01 59.98064 -24.28919 34935 ft 440 kts 114°
2026-04-26 11:01 59.95730 -24.17627 34939 ft 440 kts 114°
2026-04-26 11:02 59.94559 -24.11981 35228 ft 440 kts 115°
2026-04-26 11:02 59.93382 -24.06325 34945 ft 439 kts 114°
2026-04-26 11:02 59.91058 -23.95201 34941 ft 437 kts 114°
2026-04-26 11:03 59.88701 -23.83986 34953 ft 438 kts 114°
2026-04-26 11:03 59.86336 -23.72788 34950 ft 439 kts 114°
2026-04-26 11:04 59.83955 -23.61581 34951 ft 440 kts 114°
2026-04-26 11:04 59.81573 -23.50425 35269 ft 442 kts 115°
2026-04-26 11:05 59.80346 -23.44703 35088 ft 456 kts 115°
2026-04-26 11:05 59.79083 -23.38832 35075 ft 468 kts 115°
2026-04-26 11:05 59.77786 -23.32822 35041 ft 479 kts 115°
2026-04-26 11:05 59.76452 -23.26661 35026 ft 490 kts 115°
2026-04-26 11:06 59.73696 -23.13982 34979 ft 510 kts 115°
2026-04-26 11:06 59.70834 -23.00880 34964 ft 521 kts 115°
2026-04-26 11:07 59.67948 -22.87744 34956 ft 519 kts 115°
2026-04-26 11:07 59.65058 -22.74675 34961 ft 517 kts 115°
2026-04-26 11:08 59.62179 -22.61747 34961 ft 516 kts 115°
2026-04-26 11:08 59.59279 -22.48808 34967 ft 515 kts 115°
2026-04-26 11:09 59.56370 -22.35907 34975 ft 514 kts 115°
2026-04-26 11:09 59.53451 -22.23039 34975 ft 514 kts 116°
2026-04-26 11:10 59.50523 -22.10207 34992 ft 514 kts 116°
2026-04-26 11:10 59.47578 -21.97377 34979 ft 515 kts 116°
2026-04-26 11:11 59.44611 -21.84532 34977 ft 515 kts 116°
2026-04-26 11:11 59.41633 -21.71715 34984 ft 516 kts 116°
2026-04-26 11:12 59.38655 -21.58971 34986 ft 516 kts 116°
2026-04-26 11:12 59.35640 -21.46150 34985 ft 518 kts 116°
2026-04-26 11:13 59.32612 -21.33343 34984 ft 518 kts 116°
2026-04-26 11:13 59.29571 -21.20564 34985 ft 518 kts 116°
2026-04-26 11:14 59.26518 -21.07804 35000 ft 517 kts 116°
2026-04-26 11:14 59.23455 -20.95081 34986 ft 517 kts 116°
2026-04-26 11:15 59.20402 -20.82472 34990 ft 517 kts 116°
2026-04-26 11:15 59.17317 -20.69804 34991 ft 517 kts 117°
2026-04-26 11:16 59.14220 -20.57160 35006 ft 517 kts 117°
2026-04-26 11:16 59.11107 -20.44524 35013 ft 517 kts 117°
2026-04-26 11:17 59.07978 -20.31895 35021 ft 518 kts 117°
2026-04-26 11:17 59.04850 -20.19341 35008 ft 520 kts 117°
2026-04-26 11:18 59.01670 -20.06639 35014 ft 519 kts 117°
2026-04-26 11:18 58.98537 -19.94138 35024 ft 518 kts 117°
2026-04-26 11:19 58.95440 -19.81527 35015 ft 518 kts 116°
2026-04-26 11:19 58.92348 -19.68913 35015 ft 518 kts 117°
2026-04-26 11:20 58.89768 -19.58467 35023 ft 518 kts 117°
2026-04-26 11:20 58.86109 -19.43781 35025 ft 518 kts 117°
2026-04-26 11:21 58.82964 -19.31249 35025 ft 518 kts 117°
2026-04-26 11:21 58.79826 -19.18813 35031 ft 519 kts 117°
2026-04-26 11:22 58.76657 -19.06320 35029 ft 519 kts 117°
2026-04-26 11:22 58.73473 -18.93838 35036 ft 519 kts 117°
2026-04-26 11:23 58.70273 -18.81365 35041 ft 520 kts 117°
2026-04-26 11:23 58.67059 -18.68907 35039 ft 519 kts 118°
2026-04-26 11:24 58.63835 -18.56481 35043 ft 519 kts 118°
2026-04-26 11:24 58.60603 -18.44094 35049 ft 519 kts 118°
2026-04-26 11:25 58.57357 -18.31718 35042 ft 519 kts 118°
2026-04-26 11:25 58.54099 -18.19364 35053 ft 519 kts 118°
2026-04-26 11:26 58.50830 -18.07038 35053 ft 519 kts 118°
2026-04-26 11:26 58.47571 -17.94819 35053 ft 519 kts 118°
2026-04-26 11:27 58.44277 -17.82535 35060 ft 519 kts 118°
2026-04-26 11:27 58.40969 -17.70264 35061 ft 519 kts 119°
2026-04-26 11:28 58.37652 -17.58024 35063 ft 520 kts 119°
2026-04-26 11:28 58.34316 -17.45782 35068 ft 520 kts 119°
2026-04-26 11:29 58.30995 -17.33660 35066 ft 520 kts 119°
2026-04-26 11:29 58.27641 -17.21482 35072 ft 520 kts 119°
2026-04-26 11:30 58.24821 -17.11296 35071 ft 520 kts 120°
2026-04-26 11:30 58.20897 -16.97194 35074 ft 520 kts 120°
2026-04-26 11:31 58.17506 -16.85078 35079 ft 520 kts 120°
2026-04-26 11:31 58.14105 -16.72988 35079 ft 520 kts 120°
2026-04-26 11:32 58.10694 -16.60929 35079 ft 520 kts 120°
2026-04-26 11:32 58.07268 -16.48880 35084 ft 520 kts 120°
2026-04-26 11:33 58.03833 -16.36861 35086 ft 520 kts 120°
2026-04-26 11:33 58.00406 -16.24934 35090 ft 520 kts 120°
2026-04-26 11:34 57.96948 -16.12960 35089 ft 520 kts 121°
2026-04-26 11:34 57.93476 -16.01000 35091 ft 520 kts 121°
2026-04-26 11:35 57.89993 -15.89061 35088 ft 520 kts 121°
2026-04-26 11:35 57.87092 -15.79166 35090 ft 520 kts 121°
2026-04-26 11:36 57.82999 -15.65278 35092 ft 520 kts 121°
2026-04-26 11:36 57.79504 -15.53481 35100 ft 520 kts 121°
2026-04-26 11:37 57.75970 -15.41617 35100 ft 520 kts 121°
2026-04-26 11:37 57.72428 -15.29784 35107 ft 520 kts 122°
2026-04-26 11:38 57.68899 -15.18052 35107 ft 520 kts 122°
2026-04-26 11:38 57.65340 -15.06284 35101 ft 520 kts 122°
2026-04-26 11:39 57.61768 -14.94530 35121 ft 520 kts 122°
2026-04-26 11:39 57.58195 -14.82831 35118 ft 519 kts 122°
2026-04-26 11:40 57.54607 -14.71138 35115 ft 519 kts 122°
2026-04-26 11:40 57.51015 -14.59494 35119 ft 519 kts 122°
2026-04-26 11:42 57.36572 -14.13247 35133 ft 517 kts 123°
2026-04-26 11:43 57.32934 -14.01737 35140 ft 517 kts 123°
2026-04-26 11:43 57.29286 -13.90254 35132 ft 518 kts 123°
2026-04-26 11:44 57.25627 -13.78791 35140 ft 517 kts 123°
2026-04-26 11:44 57.22584 -13.69300 35148 ft 517 kts 123°
2026-04-26 11:45 57.18927 -13.57942 35149 ft 516 kts 123°
2026-04-26 11:45 57.14631 -13.44671 35148 ft 516 kts 124°
2026-04-26 11:46 57.11541 -13.35167 35153 ft 516 kts 124°
2026-04-26 11:46 57.07849 -13.23861 35156 ft 515 kts 124°
2026-04-26 11:47 57.04149 -13.12578 35160 ft 515 kts 124°
2026-04-26 11:47 56.99997 -13.02128 35162 ft 506 kts 139°
2026-04-26 11:48 56.94559 -12.94168 35157 ft 495 kts 155°
2026-04-26 11:48 56.88498 -12.88227 35166 ft 495 kts 156°
2026-04-26 11:49 56.82632 -12.81541 35167 ft 504 kts 143°
2026-04-26 11:49 56.78084 -12.71642 35174 ft 517 kts 123°
2026-04-26 11:50 56.74879 -12.59897 35181 ft 518 kts 119°
2026-04-26 11:50 56.71788 -12.48120 35183 ft 518 kts 119°
2026-04-26 11:51 56.68611 -12.36343 35185 ft 518 kts 120°
2026-04-26 11:51 56.65383 -12.24642 35188 ft 517 kts 120°
2026-04-26 11:52 56.62134 -12.12980 35189 ft 516 kts 121°
2026-04-26 11:52 56.58881 -12.01347 35194 ft 516 kts 121°
2026-04-26 11:53 56.55630 -11.89767 35202 ft 515 kts 121°
2026-04-26 11:54 56.50745 -11.72470 35199 ft 514 kts 121°
2026-04-26 11:54 56.47473 -11.60957 35210 ft 513 kts 121°
2026-04-26 11:55 56.44201 -11.49501 35206 ft 513 kts 121°
2026-04-26 11:55 56.40921 -11.38076 35213 ft 512 kts 121°
2026-04-26 11:56 56.37651 -11.26739 35210 ft 511 kts 121°
2026-04-26 11:56 56.34359 -11.15380 35216 ft 511 kts 121°
2026-04-26 11:57 56.31061 -11.04059 35218 ft 510 kts 121°
2026-04-26 11:57 56.27756 -10.92767 35224 ft 509 kts 121°
2026-04-26 11:58 56.24444 -10.81506 35225 ft 509 kts 122°
2026-04-26 11:58 56.21125 -10.70275 35231 ft 508 kts 122°
2026-04-26 11:59 56.17829 -10.59171 35231 ft 507 kts 122°
2026-04-26 11:59 56.14504 -10.48026 35227 ft 506 kts 122°
2026-04-26 12:00 56.11178 -10.36930 35232 ft 505 kts 122°
2026-04-26 12:00 56.07846 -10.25866 35238 ft 504 kts 122°
2026-04-26 12:01 56.04512 -10.14841 35243 ft 503 kts 122°
2026-04-26 12:01 56.01166 -10.03827 35248 ft 503 kts 122°
2026-04-26 12:02 55.97776 -9.92990 35239 ft 502 kts 124°
2026-04-26 12:02 55.94193 -9.82300 35252 ft 502 kts 125°
2026-04-26 12:03 55.90573 -9.71621 35260 ft 503 kts 125°
2026-04-26 12:03 55.86968 -9.60932 35254 ft 503 kts 124°
2026-04-26 12:04 55.83370 -9.50245 35253 ft 503 kts 125°
2026-04-26 12:04 55.79769 -9.39586 35259 ft 502 kts 125°
2026-04-26 12:05 55.76189 -9.29039 35261 ft 501 kts 125°
2026-04-26 12:05 55.72584 -9.18470 35261 ft 500 kts 125°
2026-04-26 12:06 55.68974 -9.07933 35260 ft 499 kts 125°
2026-04-26 12:06 55.65366 -8.97446 35262 ft 498 kts 125°
2026-04-26 12:07 55.61755 -8.86999 35271 ft 497 kts 125°
2026-04-26 12:07 55.58147 -8.76603 35270 ft 496 kts 126°
2026-04-26 12:08 55.54529 -8.66223 35272 ft 495 kts 126°
2026-04-26 12:08 55.50913 -8.55891 35276 ft 495 kts 126°
2026-04-26 12:09 55.47313 -8.45652 35273 ft 494 kts 126°
2026-04-26 12:09 55.43659 -8.35301 35274 ft 494 kts 126°
2026-04-26 12:10 55.40044 -8.25101 35271 ft 494 kts 126°
2026-04-26 12:10 55.36391 -8.14839 35273 ft 494 kts 126°
2026-04-26 12:11 55.32733 -8.04608 35274 ft 494 kts 126°
2026-04-26 12:11 55.29067 -7.94393 35272 ft 494 kts 126°
2026-04-26 12:12 55.25391 -7.84198 35269 ft 494 kts 127°
2026-04-26 12:12 55.21733 -7.74091 35264 ft 494 kts 127°
2026-04-26 12:13 55.18039 -7.63928 35266 ft 494 kts 127°
2026-04-26 12:13 55.14340 -7.53792 35260 ft 494 kts 127°
2026-04-26 12:14 55.10632 -7.43673 35264 ft 494 kts 127°
2026-04-26 12:14 55.06917 -7.33578 35265 ft 494 kts 127°
2026-04-26 12:15 55.03218 -7.23568 35258 ft 494 kts 127°
2026-04-26 12:15 54.99478 -7.13486 35266 ft 494 kts 128°
2026-04-26 12:16 54.95730 -7.03426 35262 ft 495 kts 128°
2026-04-26 12:16 54.91980 -6.93398 35272 ft 495 kts 128°
2026-04-26 12:17 54.88239 -6.83438 35270 ft 495 kts 128°
2026-04-26 12:17 54.84463 -6.73425 35263 ft 495 kts 128°
2026-04-26 12:18 54.80678 -6.63428 35265 ft 496 kts 128°
2026-04-26 12:18 54.76882 -6.53441 35265 ft 496 kts 129°
2026-04-26 12:19 54.73078 -6.43476 35263 ft 496 kts 129°
2026-04-26 12:19 54.69280 -6.33565 35260 ft 496 kts 129°
2026-04-26 12:20 54.65456 -6.23627 35265 ft 497 kts 129°
2026-04-26 12:20 54.61619 -6.13696 35265 ft 497 kts 129°
2026-04-26 12:21 54.57781 -6.03800 35262 ft 497 kts 129°
2026-04-26 12:21 54.53926 -5.93900 35269 ft 497 kts 129°
2026-04-26 12:22 54.50071 -5.84038 35264 ft 497 kts 129°
2026-04-26 12:22 54.46204 -5.74183 35272 ft 497 kts 129°
2026-04-26 12:23 54.42353 -5.64410 35268 ft 497 kts 129°
2026-04-26 12:23 54.38464 -5.54580 35282 ft 497 kts 129°
2026-04-26 12:24 54.34567 -5.44770 35275 ft 498 kts 129°
2026-04-26 12:24 54.30659 -5.34968 35279 ft 498 kts 129°
2026-04-26 12:25 54.24779 -5.20295 35277 ft 498 kts 129°
2026-04-26 12:25 54.20848 -5.10531 35279 ft 499 kts 129°
2026-04-26 12:26 54.16905 -5.00777 35285 ft 499 kts 129°
2026-04-26 12:26 54.12949 -4.91027 35290 ft 499 kts 129°
2026-04-26 12:27 54.08985 -4.81298 35292 ft 500 kts 129°
2026-04-26 12:27 54.05008 -4.71571 35289 ft 500 kts 129°
2026-04-26 12:28 54.01043 -4.61915 35288 ft 501 kts 129°
2026-04-26 12:28 53.97040 -4.52199 35294 ft 501 kts 129°
2026-04-26 12:29 53.93029 -4.42497 35295 ft 502 kts 129°
2026-04-26 12:30 53.87038 -4.27918 35288 ft 503 kts 128°
2026-04-26 12:30 53.83080 -4.18148 35284 ft 503 kts 129°
2026-04-26 12:31 53.77108 -4.03655 35282 ft 502 kts 129°
2026-04-26 12:31 53.73097 -3.93984 35279 ft 502 kts 129°
2026-04-26 12:32 53.69079 -3.84315 35279 ft 502 kts 129°
2026-04-26 12:33 53.63727 -3.71480 35274 ft 502 kts 129°
2026-04-26 12:33 53.59699 -3.61870 35279 ft 502 kts 129°
2026-04-26 12:34 53.55668 -3.52275 35276 ft 502 kts 129°
2026-04-26 12:34 53.51618 -3.42662 35278 ft 503 kts 129°
2026-04-26 12:35 53.47572 -3.33094 35276 ft 503 kts 129°
2026-04-26 12:35 53.43510 -3.23521 35285 ft 503 kts 129°
2026-04-26 12:36 53.39442 -3.13971 35290 ft 503 kts 129°
2026-04-26 12:36 53.35298 -3.04545 35290 ft 503 kts 130°
2026-04-26 12:37 53.31112 -2.95245 35291 ft 503 kts 130°
2026-04-26 12:37 53.26910 -2.85871 35294 ft 503 kts 130°
2026-04-26 12:38 53.22710 -2.76514 35295 ft 503 kts 130°
2026-04-26 12:38 53.18507 -2.67167 35293 ft 503 kts 130°
2026-04-26 12:39 53.14298 -2.57939 35290 ft 503 kts 130°
2026-04-26 12:39 53.10266 -2.48392 35293 ft 504 kts 126°
2026-04-26 12:40 53.06381 -2.38679 35300 ft 504 kts 127°
2026-04-26 12:40 53.02200 -2.29452 35286 ft 495 kts 141°
2026-04-26 12:40 52.99418 -2.26189 35322 ft 486 kts 153°
2026-04-26 12:41 52.96511 -2.23296 35302 ft 488 kts 153°
2026-04-26 12:41 52.90687 -2.17443 35317 ft 491 kts 152°
2026-04-26 12:42 52.84878 -2.11454 35305 ft 493 kts 151°
2026-04-26 12:42 52.81968 -2.08426 35176 ft 496 kts 151°
2026-04-26 12:42 52.79011 -2.05349 34370 ft 506 kts 151°
2026-04-26 12:42 52.76067 -2.02287 33467 ft 505 kts 151°
2026-04-26 12:43 52.73081 -1.99184 32549 ft 510 kts 151°
2026-04-26 12:43 52.70059 -1.96053 31700 ft 515 kts 151°
2026-04-26 12:43 52.67007 -1.92897 30920 ft 516 kts 151°
2026-04-26 12:43 52.63994 -1.89783 30271 ft 507 kts 151°
2026-04-26 12:44 52.61006 -1.86702 29273 ft 509 kts 151°
2026-04-26 12:44 52.58002 -1.83614 28523 ft 509 kts 150°
2026-04-26 12:44 52.55009 -1.80542 27968 ft 506 kts 150°
2026-04-26 12:44 52.52027 -1.77487 27342 ft 504 kts 150°
2026-04-26 12:45 52.49065 -1.74454 26780 ft 498 kts 150°
2026-04-26 12:45 52.46138 -1.71462 26114 ft 490 kts 150°
2026-04-26 12:45 52.43268 -1.68534 25551 ft 481 kts 150°
2026-04-26 12:45 52.40442 -1.65656 25092 ft 478 kts 150°
2026-04-26 12:46 52.37633 -1.62799 24796 ft 469 kts 150°
2026-04-26 12:46 52.34936 -1.60055 24214 ft 444 kts 150°
2026-04-26 12:46 52.32377 -1.57459 23180 ft 433 kts 150°
2026-04-26 12:46 52.29835 -1.54888 22079 ft 428 kts 150°
2026-04-26 12:47 52.28126 -1.53160 21751 ft 426 kts 150°
2026-04-26 12:47 52.27045 -1.52068 21498 ft 425 kts 150°
2026-04-26 12:47 52.24539 -1.49541 20920 ft 421 kts 150°
2026-04-26 12:47 52.22056 -1.47034 20378 ft 418 kts 149°
2026-04-26 12:48 52.19702 -1.44315 19935 ft 414 kts 143°
2026-04-26 12:48 52.17500 -1.41281 19304 ft 413 kts 140°
2026-04-26 12:48 52.15356 -1.38142 18664 ft 414 kts 139°
2026-04-26 12:48 52.13223 -1.35024 18007 ft 411 kts 140°
2026-04-26 12:49 52.11078 -1.31940 17334 ft 410 kts 140°
2026-04-26 12:49 52.08940 -1.28908 16891 ft 403 kts 140°
2026-04-26 12:49 52.06854 -1.25989 16437 ft 397 kts 141°
2026-04-26 12:49 52.04766 -1.23092 15955 ft 393 kts 141°
2026-04-26 12:50 52.02681 -1.20206 15523 ft 389 kts 141°
2026-04-26 12:50 52.00613 -1.17340 15335 ft 393 kts 141°
2026-04-26 12:50 51.98534 -1.14466 15296 ft 391 kts 141°
2026-04-26 12:50 51.96462 -1.11608 15320 ft 391 kts 141°
2026-04-26 12:51 51.94401 -1.08771 14965 ft 398 kts 141°
2026-04-26 12:51 51.92282 -1.05852 14420 ft 400 kts 141°
2026-04-26 12:51 51.90165 -1.02937 13872 ft 397 kts 141°
2026-04-26 12:51 51.88069 -1.00060 13321 ft 394 kts 141°
2026-04-26 12:52 51.86007 -0.97190 12784 ft 385 kts 138°
2026-04-26 12:52 51.84383 -0.93793 12351 ft 379 kts 118°
2026-04-26 12:52 51.83291 -0.89973 11868 ft 371 kts 115°
2026-04-26 12:52 51.82198 -0.86207 11411 ft 369 kts 116°
2026-04-26 12:53 51.81093 -0.82522 10900 ft 353 kts 117°
2026-04-26 12:53 51.80048 -0.79096 10432 ft 329 kts 117°
2026-04-26 12:53 51.79068 -0.75887 10085 ft 306 kts 117°
2026-04-26 12:53 51.78155 -0.72911 9659 ft 290 kts 117°
2026-04-26 12:54 51.77275 -0.70052 9221 ft 275 kts 117°
2026-04-26 12:54 51.76443 -0.67357 8885 ft 262 kts 117°
2026-04-26 12:54 51.75621 -0.64668 8531 ft 271 kts 117°
2026-04-26 12:54 51.74764 -0.61915 8187 ft 278 kts 117°
2026-04-26 12:55 51.73896 -0.59123 7885 ft 277 kts 117°
2026-04-26 12:55 51.72978 -0.56409 7609 ft 270 kts 128°
2026-04-26 12:55 51.71504 -0.54686 7350 ft 262 kts 166°
2026-04-26 12:55 51.69762 -0.54577 7374 ft 256 kts 184°
2026-04-26 12:56 51.67918 -0.54643 7310 ft 263 kts 180°
2026-04-26 12:56 51.66110 -0.54584 7309 ft 258 kts 179°
2026-04-26 12:56 51.64362 -0.54505 7325 ft 251 kts 179°
2026-04-26 12:56 51.62682 -0.54919 7335 ft 244 kts 204°
2026-04-26 12:57 51.61284 -0.56511 7335 ft 248 kts 230°
2026-04-26 12:57 51.60416 -0.58928 7316 ft 247 kts 251°
2026-04-26 12:57 51.60130 -0.61646 7311 ft 247 kts 264°
2026-04-26 12:58 51.59809 -0.67171 7096 ft 254 kts 264°
2026-04-26 12:58 51.59646 -0.70006 6829 ft 255 kts 264°
2026-04-26 12:58 51.59500 -0.72844 6574 ft 255 kts 264°
2026-04-26 12:58 51.59363 -0.75736 6032 ft 266 kts 265°
2026-04-26 12:59 51.59228 -0.78745 5582 ft 268 kts 264°
2026-04-26 12:59 51.59092 -0.81650 5386 ft 250 kts 264°
2026-04-26 12:59 51.58952 -0.84386 5436 ft 241 kts 259°
2026-04-26 12:59 51.58284 -0.86837 5385 ft 241 kts 228°
2026-04-26 13:00 51.56941 -0.88341 5344 ft 234 kts 195°
2026-04-26 13:00 51.55347 -0.88585 5373 ft 228 kts 176°
2026-04-26 13:00 51.53728 -0.88465 5172 ft 240 kts 177°
2026-04-26 13:00 51.52069 -0.88340 5112 ft 233 kts 175°
2026-04-26 13:01 51.50496 -0.88185 5082 ft 221 kts 176°
2026-04-26 13:01 51.48961 -0.88000 4807 ft 219 kts 169°
2026-04-26 13:01 51.47627 -0.86925 4536 ft 216 kts 134°
2026-04-26 13:01 51.47065 -0.84777 4323 ft 209 kts 92°
2026-04-26 13:02 51.47189 -0.83256 4117 ft 207 kts 82°
2026-04-26 13:02 51.47342 -0.80938 3747 ft 209 kts 88°
2026-04-26 13:02 51.47467 -0.78643 3510 ft 206 kts 88°
2026-04-26 13:02 51.47599 -0.76374 3266 ft 203 kts 87°
2026-04-26 13:03 51.47654 -0.74116 3064 ft 198 kts 91°
2026-04-26 13:03 51.47665 -0.71992 3016 ft 183 kts 92°
2026-04-26 13:03 51.47674 -0.69976 2781 ft 179 kts 91°
2026-04-26 13:03 51.47681 -0.68034 2496 ft 167 kts 92°
2026-04-26 13:04 51.47684 -0.66288 2335 ft 145 kts 91°
2026-04-26 13:04 51.47689 -0.64668 2110 ft 143 kts 92°
2026-04-26 13:04 51.47694 -0.63129 1903 ft 134 kts 88°
2026-04-26 13:04 51.47717 -0.61600 1759 ft 144 kts 92°
2026-04-26 13:05 51.47710 -0.59986 1563 ft 144 kts 93°
2026-04-26 13:05 51.47706 -0.58398 1358 ft 144 kts 91°
2026-04-26 13:05 51.47729 -0.56862 1203 ft 135 kts 89°
2026-04-26 13:05 51.47729 -0.55349 984 ft 135 kts 92°
2026-04-26 13:06 51.47729 -0.53813 795 ft 139 kts 91°
2026-04-26 13:06 51.47734 -0.52236 559 ft 142 kts 90°
2026-04-26 13:06 51.47738 -0.50699 379 ft 133 kts 89°
2026-04-26 13:06 51.47747 -0.49219 209 ft 132 kts 90°
2026-04-26 13:07 51.47751 -0.47746 93 ft 126 kts 89°
2026-04-26 13:07 51.47758 -0.46499 100 ft 95 kts 90°
2026-04-26 13:07 51.47761 -0.45640 91 ft 59 kts 90°
2026-04-26 13:07 51.47762 -0.45137 95 ft 39 kts 89°
2026-04-26 13:08 51.47716 -0.44869 99 ft 18 kts 138°
2026-04-26 13:08 51.47645 -0.44795 99 ft 8 kts 153°
2026-04-26 13:08 51.47618 -0.44760 97 ft 0 kts 135°
2026-04-26 13:08 51.47614 -0.44750 99 ft 1 kts 122°
2026-04-26 13:09 51.47607 -0.44728 96 ft 2 kts 115°
2026-04-26 13:09 51.47600 -0.44708 96 ft 3 kts 121°
2026-04-26 13:09 51.47565 -0.44670 95 ft 7 kts 158°
2026-04-26 13:09 51.47527 -0.44638 95 ft 10 kts 143°
2026-04-26 13:10 51.47492 -0.44587 95 ft 6 kts 144°
2026-04-26 13:10 51.47449 -0.44562 94 ft 8 kts 172°
2026-04-26 13:10 51.47402 -0.44558 90 ft 6 kts 178°
2026-04-26 13:10 51.47362 -0.44558 90 ft 5 kts 180°
2026-04-26 13:11 51.47322 -0.44557 90 ft 5 kts 179°